KLM701 EHAM-SAEZ

Flight info

Callsign KLM701
Flight time 13h 31m
Altitude 30000
Route IDRID L980 LAM L179 ICTAM M197 ENHAQ DCT GAJIT DCT GAPLI/M081F300 DCT LASNO DCT GONAN DCT 40N021W/M081F320 35N027W 30N031W 25N033W 20N035W/M081F340 DCT XIBOT/N0480F340 DCT OPADO DCT 10N039W DCT MAPLU DCT NENIP DCT SLI/N0487F360 UZ2 ISKAB UM799 DIKAX DCT ARVOP/N0482F370 UL216 EGELU/N0482F380 UM544 VAS UP526 REPAM UZ103 DALAB UL793 GUA UZ129 PAGON PAGON7X
Aircraft B772/H-SDE2E3FGHIJ3J5P2RWXYZ/LB1D1

Departure

Time 2026-04-28 19:34
Airport Amsterdam Airport Schiphol (EHAM)

Arrival

Time 2026-04-29 09:05
Airport Ezeiza International Airport - Ministro Pistarini (SAEZ)
Time Latitude Longitude Altitude Speed Heading
2026-04-28 18:03 52.31095 4.76464 3 ft 0 kts 123°
2026-04-28 19:14 52.31107 4.76439 4 ft 4 kts 143°
2026-04-28 19:15 52.31130 4.76421 3 ft 4 kts 171°
2026-04-28 19:15 52.31157 4.76419 3 ft 4 kts 186°
2026-04-28 19:15 52.31182 4.76425 3 ft 2 kts 191°
2026-04-28 19:15 52.31196 4.76430 3 ft 4 kts 188°
2026-04-28 19:16 52.31214 4.76433 3 ft 0 kts 186°
2026-04-28 19:16 52.31222 4.76435 3 ft 4 kts 187°
2026-04-28 19:16 52.31243 4.76440 3 ft 4 kts 193°
2026-04-28 19:17 52.31269 4.76453 4 ft 4 kts 202°
2026-04-28 19:17 52.31293 4.76471 4 ft 4 kts 210°
2026-04-28 19:17 52.31316 4.76495 3 ft 4 kts 217°
2026-04-28 19:17 52.31337 4.76522 6 ft 4 kts 220°
2026-04-28 19:18 52.31354 4.76544 4 ft 2 kts 213°
2026-04-28 19:18 52.31339 4.76525 3 ft 4 kts 222°
2026-04-28 19:18 52.31324 4.76490 4 ft 4 kts 244°
2026-04-28 19:18 52.31328 4.76454 3 ft 4 kts 301°
2026-04-28 19:19 52.31349 4.76433 3 ft 4 kts 339°
2026-04-28 19:19 52.31357 4.76429 3 ft 0 kts 343°
2026-04-28 19:21 52.31371 4.76421 3 ft 5 kts 342°
2026-04-28 19:22 52.31416 4.76398 3 ft 9 kts 342°
2026-04-28 19:22 52.31454 4.76378 3 ft 9 kts 342°
2026-04-28 19:22 52.31520 4.76307 3 ft 9 kts 306°
2026-04-28 19:22 52.31536 4.76209 3 ft 10 kts 273°
2026-04-28 19:23 52.31533 4.76077 4 ft 13 kts 266°
2026-04-28 19:23 52.31527 4.75917 3 ft 16 kts 266°
2026-04-28 19:23 52.31521 4.75724 3 ft 18 kts 267°
2026-04-28 19:23 52.31514 4.75508 3 ft 19 kts 266°
2026-04-28 19:24 52.31506 4.75290 3 ft 19 kts 266°
2026-04-28 19:24 52.31499 4.75071 3 ft 19 kts 266°
2026-04-28 19:24 52.31491 4.74854 3 ft 19 kts 267°
2026-04-28 19:24 52.31484 4.74637 3 ft 19 kts 267°
2026-04-28 19:25 52.31478 4.74449 3 ft 14 kts 267°
2026-04-28 19:25 52.31485 4.74333 3 ft 10 kts 302°
2026-04-28 19:25 52.31548 4.74299 3 ft 11 kts
2026-04-28 19:25 52.31635 4.74306 3 ft 14 kts
2026-04-28 19:26 52.31737 4.74316 3 ft 15 kts
2026-04-28 19:26 52.31840 4.74325 3 ft 15 kts
2026-04-28 19:26 52.31941 4.74335 3 ft 11 kts
2026-04-28 19:26 52.32009 4.74313 3 ft 10 kts 320°
2026-04-28 19:27 52.32031 4.74197 3 ft 13 kts 274°
2026-04-28 19:27 52.32037 4.74029 2 ft 15 kts 273°
2026-04-28 19:27 52.32043 4.73857 3 ft 15 kts 273°
2026-04-28 19:27 52.32049 4.73684 3 ft 15 kts 273°
2026-04-28 19:28 52.32055 4.73511 3 ft 15 kts 273°
2026-04-28 19:28 52.32093 4.73354 4 ft 15 kts 311°
2026-04-28 19:28 52.32172 4.73239 3 ft 15 kts 319°
2026-04-28 19:28 52.32253 4.73125 3 ft 16 kts 319°
2026-04-28 19:29 52.32345 4.72996 3 ft 19 kts 319°
2026-04-28 19:29 52.32410 4.72905 3 ft 19 kts 319°
2026-04-28 19:29 52.32541 4.72721 3 ft 18 kts 319°
2026-04-28 19:29 52.32638 4.72583 3 ft 19 kts 319°
2026-04-28 19:30 52.32727 4.72432 3 ft 18 kts 311°
2026-04-28 19:30 52.32812 4.72275 3 ft 18 kts 311°
2026-04-28 19:30 52.32897 4.72117 3 ft 18 kts 311°
2026-04-28 19:30 52.32982 4.71959 3 ft 18 kts 311°
2026-04-28 19:31 52.33067 4.71802 3 ft 18 kts 311°
2026-04-28 19:31 52.33129 4.71683 3 ft 13 kts 305°
2026-04-28 19:31 52.33142 4.71543 3 ft 13 kts 252°
2026-04-28 19:31 52.33084 4.71432 3 ft 13 kts 221°
2026-04-28 19:32 52.33017 4.71335 3 ft 13 kts 221°
2026-04-28 19:32 52.32950 4.71239 3 ft 13 kts 221°
2026-04-28 19:32 52.32885 4.71141 3 ft 13 kts 229°
2026-04-28 19:32 52.32863 4.71006 2 ft 12 kts 271°
2026-04-28 19:33 52.32870 4.70922 2 ft 6 kts 295°
2026-04-28 19:33 52.32909 4.70899 2 ft 6 kts 355°
2026-04-28 19:33 52.33014 4.70906 1 ft 42 kts
2026-04-28 19:33 52.33563 4.70957 4 ft 114 kts
2026-04-28 19:34 52.34573 4.71051 9 ft 174 kts
2026-04-28 19:34 52.35830 4.71165 594 ft 181 kts
2026-04-28 19:34 52.37099 4.71270 1389 ft 186 kts 11°
2026-04-28 19:34 52.38454 4.71405 1632 ft 207 kts 11°
2026-04-28 19:35 52.39940 4.71543 1970 ft 219 kts 10°
2026-04-28 19:35 52.41511 4.71676 2301 ft 234 kts
2026-04-28 19:35 52.43181 4.71206 2520 ft 259 kts 339°
2026-04-28 19:35 52.44673 4.69378 2937 ft 275 kts 318°
2026-04-28 19:36 52.45983 4.67049 3421 ft 280 kts 309°
2026-04-28 19:36 52.46739 4.64085 3906 ft 288 kts 274°
2026-04-28 19:36 52.46719 4.60832 4474 ft 287 kts 269°
2026-04-28 19:36 52.46705 4.57544 5108 ft 286 kts 270°
2026-04-28 19:37 52.46429 4.54377 5529 ft 289 kts 244°
2026-04-28 19:37 52.45690 4.52527 5902 ft 286 kts 221°
2026-04-28 19:37 52.43521 4.50146 6550 ft 286 kts 208°
2026-04-28 19:37 52.41990 4.48071 6989 ft 291 kts 234°
2026-04-28 19:38 52.41015 4.45129 7352 ft 295 kts 243°
2026-04-28 19:38 52.40096 4.42165 7980 ft 293 kts 241°
2026-04-28 19:38 52.39129 4.39185 8538 ft 296 kts 241°
2026-04-28 19:38 52.38155 4.36203 9121 ft 299 kts 240°
2026-04-28 19:39 52.37166 4.33179 9642 ft 302 kts 241°
2026-04-28 19:39 52.36166 4.30119 10165 ft 306 kts 240°
2026-04-28 19:39 52.35169 4.27069 10621 ft 312 kts 240°
2026-04-28 19:39 52.34113 4.23844 10746 ft 329 kts 241°
2026-04-28 19:40 52.33000 4.20451 10890 ft 347 kts 240°
2026-04-28 19:40 52.31827 4.16879 11037 ft 365 kts 240°
2026-04-28 19:40 52.30500 4.13240 11239 ft 379 kts 234°
2026-04-28 19:40 52.28898 4.09753 11676 ft 387 kts 230°
2026-04-28 19:41 52.27208 4.06352 12197 ft 393 kts 229°
2026-04-28 19:41 52.25462 4.02875 12760 ft 398 kts 230°
2026-04-28 19:41 52.23712 3.99353 13405 ft 401 kts 230°
2026-04-28 19:41 52.21963 3.95787 14056 ft 403 kts 231°
2026-04-28 19:42 52.20215 3.92182 14532 ft 409 kts 230°
2026-04-28 19:42 52.18444 3.88520 15001 ft 412 kts 230°
2026-04-28 19:42 52.16672 3.84845 15599 ft 413 kts 230°
2026-04-28 19:42 52.15493 3.82396 15917 ft 416 kts 230°
2026-04-28 19:43 52.13084 3.77395 16491 ft 422 kts 230°
2026-04-28 19:43 52.11267 3.73631 17051 ft 423 kts 231°
2026-04-28 19:43 52.09440 3.69852 17484 ft 427 kts 230°
2026-04-28 19:43 52.07581 3.66014 17893 ft 432 kts 231°
2026-04-28 19:44 52.05716 3.62171 18409 ft 434 kts 231°
2026-04-28 19:44 52.03864 3.58356 18817 ft 436 kts 231°
2026-04-28 19:44 52.01973 3.54469 19161 ft 440 kts 231°
2026-04-28 19:44 52.00065 3.50556 19577 ft 442 kts 231°
2026-04-28 19:45 51.98170 3.46596 20041 ft 442 kts 232°
2026-04-28 19:45 51.96351 3.42579 20516 ft 443 kts 233°
2026-04-28 19:45 51.94545 3.38511 20887 ft 445 kts 233°
2026-04-28 19:45 51.93340 3.35805 21092 ft 448 kts 232°
2026-04-28 19:46 51.90892 3.30361 21533 ft 452 kts 232°
2026-04-28 19:46 51.89028 3.26255 21942 ft 453 kts 232°
2026-04-28 19:46 51.87783 3.23519 22179 ft 453 kts 233°
2026-04-28 19:46 51.86103 3.19142 22417 ft 460 kts 243°
2026-04-28 19:47 51.84938 3.14321 22743 ft 463 kts 253°
2026-04-28 19:47 51.84247 3.09208 23120 ft 464 kts 264°
2026-04-28 19:47 51.83954 3.04005 23463 ft 466 kts 266°
2026-04-28 19:47 51.83671 2.98755 23782 ft 469 kts 265°
2026-04-28 19:48 51.83361 2.93499 24053 ft 472 kts 265°
2026-04-28 19:48 51.83032 2.88260 24296 ft 476 kts 264°
2026-04-28 19:48 51.82682 2.82892 24454 ft 482 kts 264°
2026-04-28 19:48 51.82321 2.77470 24706 ft 484 kts 264°
2026-04-28 19:49 51.81958 2.72029 25032 ft 485 kts 264°
2026-04-28 19:49 51.81596 2.66644 25317 ft 487 kts 264°
2026-04-28 19:49 51.81224 2.61160 25572 ft 490 kts 264°
2026-04-28 19:49 51.80844 2.55658 25820 ft 493 kts 264°
2026-04-28 19:50 51.80078 2.44667 26329 ft 498 kts 264°
2026-04-28 19:50 51.79686 2.39079 26533 ft 502 kts 264°
2026-04-28 19:50 51.79287 2.33431 26649 ft 508 kts 264°
2026-04-28 19:51 51.78883 2.27738 26888 ft 510 kts 264°
2026-04-28 19:51 51.78475 2.22034 27249 ft 510 kts 264°
2026-04-28 19:51 51.78106 2.16412 27626 ft 509 kts 265°
2026-04-28 19:51 51.77772 2.10711 27873 ft 511 kts 265°
2026-04-28 19:52 51.77449 2.04983 28044 ft 515 kts 265°
2026-04-28 19:52 51.77121 1.99193 28239 ft 518 kts 265°
2026-04-28 19:52 51.76782 1.93375 28494 ft 520 kts 265°
2026-04-28 19:52 51.76433 1.87537 28618 ft 525 kts 265°
2026-04-28 19:53 51.76072 1.81620 28751 ft 529 kts 265°
2026-04-28 19:53 51.75706 1.75703 28983 ft 530 kts 264°
2026-04-28 19:53 51.75342 1.69840 29245 ft 531 kts 264°
2026-04-28 19:53 51.74970 1.63898 29461 ft 533 kts 264°
2026-04-28 19:54 51.74592 1.57921 29649 ft 535 kts 264°
2026-04-28 19:54 51.74205 1.51934 29815 ft 538 kts 264°
2026-04-28 19:54 51.73817 1.45989 29981 ft 540 kts 264°
2026-04-28 19:54 51.73419 1.39939 30109 ft 543 kts 264°
2026-04-28 19:55 51.73018 1.33874 30249 ft 545 kts 264°
2026-04-28 19:55 51.72613 1.27781 30493 ft 545 kts 264°
2026-04-28 19:55 51.72207 1.21703 30785 ft 543 kts 264°
2026-04-28 19:55 51.71800 1.15658 31090 ft 541 kts 264°
2026-04-28 19:56 51.71391 1.09626 31368 ft 539 kts 264°
2026-04-28 19:56 51.70983 1.03604 31589 ft 539 kts 264°
2026-04-28 19:56 51.70584 0.97652 31822 ft 538 kts 264°
2026-04-28 19:56 51.70177 0.91631 31943 ft 541 kts 264°
2026-04-28 19:57 51.69754 0.85584 31999 ft 544 kts 264°
2026-04-28 19:57 51.69328 0.79507 32176 ft 545 kts 264°
2026-04-28 19:57 51.68902 0.73504 32227 ft 545 kts 263°
2026-04-28 19:58 51.68001 0.61392 32262 ft 542 kts 264°
2026-04-28 19:58 51.67152 0.49332 32269 ft 540 kts 264°
2026-04-28 19:59 51.66285 0.37368 32274 ft 539 kts 263°
2026-04-28 19:59 51.65376 0.25379 32293 ft 539 kts 263°
2026-04-28 20:00 51.64456 0.13366 32291 ft 540 kts 262°
2026-04-28 20:00 51.63188 0.01396 32301 ft 542 kts 259°
2026-04-28 20:01 51.61828 -0.10489 32409 ft 545 kts 260°
2026-04-28 20:01 51.60698 -0.22592 32431 ft 548 kts 263°
2026-04-28 20:01 51.60224 -0.28679 32301 ft 549 kts 263°
2026-04-28 20:02 51.59755 -0.34797 32301 ft 550 kts 263°
2026-04-28 20:02 51.58774 -0.47042 32297 ft 551 kts 263°
2026-04-28 20:03 51.57740 -0.59230 32292 ft 552 kts 263°
2026-04-28 20:03 51.56680 -0.71449 32297 ft 547 kts 262°
2026-04-28 20:04 51.55625 -0.83504 32278 ft 541 kts 262°
2026-04-28 20:04 51.54574 -0.95417 32295 ft 542 kts 262°
2026-04-28 20:05 51.53500 -1.07447 32289 ft 544 kts 262°
2026-04-28 20:05 51.52114 -1.19359 32288 ft 545 kts 253°
2026-04-28 20:06 51.49626 -1.30920 32287 ft 547 kts 249°
2026-04-28 20:06 51.47071 -1.42354 32292 ft 548 kts 249°
2026-04-28 20:07 51.44544 -1.53943 32293 ft 550 kts 250°
2026-04-28 20:07 51.42017 -1.65552 32296 ft 552 kts 250°
2026-04-28 20:08 51.39476 -1.77104 32295 ft 553 kts 250°
2026-04-28 20:08 51.36899 -1.88748 32283 ft 553 kts 249°
2026-04-28 20:09 51.34320 -2.00361 32281 ft 554 kts 250°
2026-04-28 20:09 51.31924 -2.12070 32304 ft 554 kts 252°
2026-04-28 20:10 51.29727 -2.23755 32288 ft 547 kts 252°
2026-04-28 20:10 51.27523 -2.35348 32284 ft 544 kts 252°
2026-04-28 20:11 51.25265 -2.46902 32266 ft 545 kts 252°
2026-04-28 20:11 51.22984 -2.58412 32275 ft 546 kts 252°
2026-04-28 20:12 51.20673 -2.69992 32271 ft 548 kts 252°
2026-04-28 20:12 51.18365 -2.81512 32286 ft 549 kts 252°
2026-04-28 20:13 51.16026 -2.93128 32270 ft 550 kts 252°
2026-04-28 20:13 51.13668 -3.04766 32286 ft 551 kts 252°
2026-04-28 20:14 51.11310 -3.16341 32292 ft 553 kts 252°
2026-04-28 20:14 51.08918 -3.28006 32279 ft 554 kts 252°
2026-04-28 20:15 51.06514 -3.39663 32267 ft 554 kts 252°
2026-04-28 20:15 51.04113 -3.51244 32272 ft 555 kts 252°
2026-04-28 20:16 51.01684 -3.62886 32277 ft 555 kts 252°
2026-04-28 20:16 50.99236 -3.74554 32268 ft 555 kts 252°
2026-04-28 20:17 50.96898 -3.86135 32243 ft 552 kts 255°
2026-04-28 20:17 50.94505 -3.97748 32283 ft 554 kts 251°
2026-04-28 20:18 50.91905 -4.09312 32290 ft 558 kts 251°
2026-04-28 20:18 50.89356 -4.20882 32283 ft 561 kts 251°
2026-04-28 20:19 50.86821 -4.32616 32274 ft 563 kts 252°
2026-04-28 20:19 50.84277 -4.44396 32279 ft 564 kts 252°
2026-04-28 20:20 50.81730 -4.56087 32279 ft 565 kts 252°
2026-04-28 20:20 50.79150 -4.67832 32278 ft 564 kts 252°
2026-04-28 20:21 50.76576 -4.79477 32293 ft 562 kts 252°
2026-04-28 20:21 50.73987 -4.91131 32277 ft 559 kts 252°
2026-04-28 20:22 50.71403 -5.02699 32270 ft 556 kts 252°
2026-04-28 20:22 50.68835 -5.14132 32271 ft 554 kts 252°
2026-04-28 20:23 50.66255 -5.25559 32263 ft 552 kts 251°
2026-04-28 20:23 50.63682 -5.36891 32264 ft 552 kts 251°
2026-04-28 20:24 50.61078 -5.48300 32270 ft 553 kts 251°
2026-04-28 20:24 50.58470 -5.59666 32226 ft 554 kts 251°
2026-04-28 20:25 50.55834 -5.71088 32275 ft 555 kts 252°
2026-04-28 20:25 50.53183 -5.82520 32272 ft 557 kts 251°
2026-04-28 20:26 50.50512 -5.93971 32273 ft 558 kts 251°
2026-04-28 20:26 50.47834 -6.05396 32261 ft 559 kts 252°
2026-04-28 20:27 50.45149 -6.16782 32277 ft 557 kts 252°
2026-04-28 20:27 50.42444 -6.28198 32273 ft 556 kts 252°
2026-04-28 20:28 50.39757 -6.39481 32277 ft 554 kts 252°
2026-04-28 20:28 50.37053 -6.50772 32251 ft 552 kts 252°
2026-04-28 20:29 50.34345 -6.62024 32273 ft 551 kts 252°
2026-04-28 20:29 50.31648 -6.73176 32278 ft 551 kts 252°
2026-04-28 20:30 50.28923 -6.84385 32282 ft 551 kts 252°
2026-04-28 20:30 50.26181 -6.95603 32252 ft 551 kts 252°
2026-04-28 20:31 50.23438 -7.06771 32284 ft 551 kts 252°
2026-04-28 20:31 50.20699 -7.17871 32289 ft 551 kts 252°
2026-04-28 20:32 50.17923 -7.29057 32320 ft 552 kts 252°
2026-04-28 20:32 50.15604 -7.38362 32257 ft 552 kts 252°
2026-04-28 20:33 50.12362 -7.51305 32276 ft 550 kts 252°
2026-04-28 20:33 50.10018 -7.60618 32282 ft 550 kts 252°
2026-04-28 20:34 50.07239 -7.71611 32283 ft 549 kts 252°
2026-04-28 20:34 50.04437 -7.82646 32259 ft 547 kts 252°
2026-04-28 20:35 50.01505 -7.93539 32279 ft 546 kts 243°
2026-04-28 20:35 49.99297 -7.98344 32292 ft 548 kts 227°
2026-04-28 20:35 49.96488 -8.02331 32280 ft 547 kts 214°
2026-04-28 20:35 49.93234 -8.05351 32282 ft 540 kts 201°
2026-04-28 20:36 49.89793 -8.07683 32318 ft 542 kts 200°
2026-04-28 20:36 49.82845 -8.12531 32292 ft 551 kts 202°
2026-04-28 20:37 49.75884 -8.17575 32244 ft 553 kts 203°
2026-04-28 20:37 49.68977 -8.22627 32259 ft 552 kts 203°
2026-04-28 20:38 49.62010 -8.27696 32275 ft 551 kts 203°
2026-04-28 20:38 49.55098 -8.32693 32264 ft 551 kts 203°
2026-04-28 20:39 49.48148 -8.37697 32259 ft 550 kts 203°
2026-04-28 20:39 49.41213 -8.42675 32300 ft 550 kts 203°
2026-04-28 20:40 49.34315 -8.47612 32262 ft 550 kts 203°
2026-04-28 20:40 49.27391 -8.52554 32241 ft 548 kts 204°
2026-04-28 20:41 49.20460 -8.57485 32279 ft 547 kts 204°
2026-04-28 20:41 49.13579 -8.62364 32262 ft 548 kts 204°
2026-04-28 20:42 49.06645 -8.67267 32255 ft 548 kts 204°
2026-04-28 20:42 48.99711 -8.72155 32243 ft 549 kts 204°
2026-04-28 20:43 48.92813 -8.77001 32251 ft 550 kts 204°
2026-04-28 20:43 48.85841 -8.81886 32211 ft 549 kts 204°
2026-04-28 20:44 48.78893 -8.86739 32228 ft 548 kts 204°
2026-04-28 20:44 48.71995 -8.91544 32244 ft 548 kts 204°
2026-04-28 20:45 48.65066 -8.96385 32232 ft 548 kts 206°
2026-04-28 20:45 48.58651 -9.02469 32234 ft 546 kts 219°
2026-04-28 20:46 48.53019 -9.10109 32233 ft 542 kts 229°
2026-04-28 20:46 48.47784 -9.18258 32228 ft 542 kts 229°
2026-04-28 20:47 48.42494 -9.26389 32224 ft 543 kts 228°
2026-04-28 20:47 48.37166 -9.34479 32228 ft 543 kts 228°
2026-04-28 20:48 48.31866 -9.42480 32224 ft 544 kts 227°
2026-04-28 20:48 48.26518 -9.50531 32186 ft 543 kts 227°
2026-04-28 20:49 48.21172 -9.58556 32216 ft 542 kts 228°
2026-04-28 20:49 48.15867 -9.66501 32217 ft 541 kts 227°
2026-04-28 20:50 48.10530 -9.74467 32221 ft 540 kts 227°
2026-04-28 20:50 48.05206 -9.82390 32164 ft 539 kts 227°
2026-04-28 20:51 47.99924 -9.90226 32234 ft 537 kts 227°
2026-04-28 20:51 47.94611 -9.98083 32210 ft 537 kts 227°
2026-04-28 20:52 47.89283 -10.05938 32216 ft 536 kts 227°
2026-04-28 20:52 47.84017 -10.13679 32208 ft 535 kts 227°
2026-04-28 20:53 47.76061 -10.25330 32222 ft 533 kts 227°
2026-04-28 20:53 47.70794 -10.33013 32208 ft 533 kts 227°
2026-04-28 20:54 47.65486 -10.40735 32203 ft 533 kts 227°
2026-04-28 20:54 47.60173 -10.48439 32205 ft 533 kts 227°
2026-04-28 20:55 47.54898 -10.56066 32197 ft 532 kts 226°
2026-04-28 20:55 47.49590 -10.63716 32204 ft 532 kts 226°
2026-04-28 20:56 47.44282 -10.71344 32195 ft 531 kts 226°
2026-04-28 20:56 47.39001 -10.78912 32196 ft 531 kts 226°
2026-04-28 20:57 47.33689 -10.86503 32168 ft 530 kts 226°
2026-04-28 20:57 47.28425 -10.94001 32189 ft 529 kts 226°
2026-04-28 20:58 47.23130 -11.01521 32189 ft 528 kts 226°
2026-04-28 20:58 47.17838 -11.09016 32181 ft 527 kts 226°
2026-04-28 20:59 47.12577 -11.16445 32182 ft 526 kts 226°
2026-04-28 20:59 47.07284 -11.23899 32177 ft 525 kts 225°
2026-04-28 21:00 47.02004 -11.31311 32196 ft 524 kts 225°
2026-04-28 21:00 46.96764 -11.38646 32174 ft 524 kts 225°
2026-04-28 21:01 46.91483 -11.46019 32177 ft 524 kts 225°
2026-04-28 21:01 46.86187 -11.53391 32168 ft 523 kts 225°
2026-04-28 21:02 46.80940 -11.60675 32172 ft 523 kts 225°
2026-04-28 21:02 46.75640 -11.68009 32174 ft 523 kts 225°
2026-04-28 21:03 46.70354 -11.75304 32169 ft 523 kts 225°
2026-04-28 21:03 46.65089 -11.82550 32141 ft 522 kts 225°
2026-04-28 21:04 46.59797 -11.89812 32149 ft 521 kts 224°
2026-04-28 21:04 46.54519 -11.97035 32167 ft 521 kts 224°
2026-04-28 21:05 46.49268 -12.04201 32156 ft 521 kts 224°
2026-04-28 21:05 46.43969 -12.11412 32149 ft 521 kts 224°
2026-04-28 21:06 46.38700 -12.18563 32135 ft 520 kts 224°
2026-04-28 21:06 46.33405 -12.25728 32141 ft 519 kts 224°
2026-04-28 21:07 46.28111 -12.32873 32146 ft 519 kts 224°
2026-04-28 21:07 46.22854 -12.39947 32141 ft 519 kts 224°
2026-04-28 21:08 46.17559 -12.47053 32142 ft 519 kts 224°
2026-04-28 21:08 46.12269 -12.54133 32144 ft 519 kts 224°
2026-04-28 21:09 46.06972 -12.61205 32143 ft 519 kts 224°
2026-04-28 21:09 46.01662 -12.68272 32138 ft 519 kts 224°
2026-04-28 21:10 45.96360 -12.75311 32120 ft 519 kts 223°
2026-04-28 21:10 45.91037 -12.82357 32131 ft 519 kts 223°
2026-04-28 21:11 45.85748 -12.89340 32134 ft 519 kts 223°
2026-04-28 21:11 45.80423 -12.96352 32132 ft 519 kts 223°
2026-04-28 21:12 45.75097 -13.03345 32126 ft 519 kts 223°
2026-04-28 21:12 45.69807 -13.10273 32119 ft 518 kts 222°
2026-04-28 21:13 45.64484 -13.17225 32119 ft 517 kts 222°
2026-04-28 21:13 45.59148 -13.24175 32132 ft 517 kts 222°
2026-04-28 21:14 45.53860 -13.31044 32122 ft 517 kts 222°
2026-04-28 21:14 45.48539 -13.37939 32115 ft 516 kts 221°
2026-04-28 21:15 45.43211 -13.44822 32117 ft 516 kts 221°
2026-04-28 21:15 45.37896 -13.51672 32117 ft 515 kts 221°
2026-04-28 21:16 45.32598 -13.58482 32113 ft 515 kts 221°
2026-04-28 21:16 45.27270 -13.65313 32106 ft 514 kts 221°
2026-04-28 21:17 45.21986 -13.72069 32108 ft 514 kts 221°
2026-04-28 21:17 45.16651 -13.78872 32104 ft 513 kts 221°
2026-04-28 21:18 45.12233 -13.84494 32114 ft 513 kts 221°
2026-04-28 21:18 45.06048 -13.92346 32095 ft 513 kts 220°
2026-04-28 21:19 45.01623 -13.97947 32098 ft 512 kts 220°
2026-04-28 21:19 44.95843 -14.06412 32190 ft 517 kts 228°
2026-04-28 21:20 44.94239 -14.08990 32350 ft 516 kts 228°
2026-04-28 21:20 44.91891 -14.12758 32616 ft 515 kts 228°
2026-04-28 21:20 44.89515 -14.16556 32902 ft 513 kts 227°
2026-04-28 21:20 44.87145 -14.20324 33199 ft 511 kts 227°
2026-04-28 21:21 44.84809 -14.24018 33496 ft 509 kts 227°
2026-04-28 21:21 44.82440 -14.27749 33673 ft 510 kts 227°
2026-04-28 21:21 44.80067 -14.31478 33854 ft 510 kts 227°
2026-04-28 21:21 44.77692 -14.35202 34015 ft 510 kts 227°
2026-04-28 21:22 44.72932 -14.42653 34104 ft 511 kts 227°
2026-04-28 21:22 44.68216 -14.50019 34085 ft 509 kts 227°
2026-04-28 21:23 44.63476 -14.57404 34098 ft 507 kts 227°
2026-04-28 21:23 44.58745 -14.64757 34098 ft 507 kts 227°
2026-04-28 21:24 44.54028 -14.72069 34078 ft 508 kts 227°
2026-04-28 21:24 44.49266 -14.79431 34079 ft 509 kts 227°
2026-04-28 21:25 44.44513 -14.86759 34098 ft 511 kts 227°
2026-04-28 21:25 44.39708 -14.94149 34100 ft 514 kts 227°
2026-04-28 21:26 44.34878 -15.01558 34080 ft 515 kts 227°
2026-04-28 21:26 44.30073 -15.08909 34084 ft 514 kts 226°
2026-04-28 21:27 44.25244 -15.16277 34080 ft 514 kts 226°
2026-04-28 21:27 44.20412 -15.23631 34074 ft 512 kts 226°
2026-04-28 21:28 44.15623 -15.30899 34086 ft 511 kts 226°
2026-04-28 21:28 44.10801 -15.38199 34074 ft 510 kts 226°
2026-04-28 21:29 44.06023 -15.45415 34073 ft 508 kts 226°
2026-04-28 21:29 44.01231 -15.52632 34075 ft 506 kts 226°
2026-04-28 21:30 43.96483 -15.59765 34075 ft 505 kts 226°
2026-04-28 21:30 43.91705 -15.66925 34070 ft 504 kts 226°
2026-04-28 21:31 43.86928 -15.74063 34080 ft 504 kts 226°
2026-04-28 21:31 43.82170 -15.81158 34074 ft 505 kts 226°
2026-04-28 21:32 43.77369 -15.88298 34072 ft 506 kts 226°
2026-04-28 21:32 43.72557 -15.95436 34076 ft 506 kts 226°
2026-04-28 21:33 43.67748 -16.02552 34063 ft 507 kts 226°
2026-04-28 21:33 43.62939 -16.09650 34074 ft 507 kts 226°
2026-04-28 21:34 43.58105 -16.16767 34069 ft 508 kts 226°
2026-04-28 21:34 43.53290 -16.23837 34076 ft 508 kts 226°
2026-04-28 21:35 43.48436 -16.30947 34067 ft 508 kts 226°
2026-04-28 21:35 43.43604 -16.38009 34065 ft 508 kts 226°
2026-04-28 21:36 43.38744 -16.45092 34072 ft 508 kts 227°
2026-04-28 21:36 43.33886 -16.52156 34067 ft 507 kts 226°
2026-04-28 21:37 43.29030 -16.59198 34065 ft 507 kts 226°
2026-04-28 21:37 43.24204 -16.66180 34063 ft 506 kts 226°
2026-04-28 21:38 43.19370 -16.73155 34052 ft 505 kts 227°
2026-04-28 21:38 43.14524 -16.80132 34077 ft 504 kts 227°
2026-04-28 21:39 43.09673 -16.87085 34062 ft 504 kts 227°
2026-04-28 21:39 43.04859 -16.93990 34063 ft 503 kts 227°
2026-04-28 21:40 43.00017 -17.00915 34066 ft 503 kts 227°
2026-04-28 21:40 42.95171 -17.07824 34056 ft 503 kts 227°
2026-04-28 21:41 42.90341 -17.14691 34069 ft 503 kts 227°
2026-04-28 21:41 42.85489 -17.21572 34067 ft 503 kts 227°
2026-04-28 21:42 42.80610 -17.28475 34060 ft 504 kts 227°
2026-04-28 21:42 42.75766 -17.35317 34064 ft 504 kts 227°
2026-04-28 21:43 42.70881 -17.42198 34051 ft 505 kts 227°
2026-04-28 21:43 42.65993 -17.49065 34077 ft 505 kts 228°
2026-04-28 21:44 42.61110 -17.55914 34059 ft 505 kts 228°
2026-04-28 21:44 42.56207 -17.62764 34064 ft 505 kts 228°
2026-04-28 21:45 42.51332 -17.69563 34062 ft 505 kts 228°
2026-04-28 21:45 42.46418 -17.76401 34052 ft 505 kts 229°
2026-04-28 21:46 42.41507 -17.83224 34060 ft 505 kts 229°
2026-04-28 21:46 42.36589 -17.90031 34065 ft 505 kts 229°
2026-04-28 21:47 42.31707 -17.96777 34066 ft 505 kts 229°
2026-04-28 21:47 42.26779 -18.03572 34067 ft 505 kts 229°
2026-04-28 21:48 42.21858 -18.10339 34035 ft 505 kts 230°
2026-04-28 21:48 42.16933 -18.17096 34054 ft 504 kts 230°
2026-04-28 21:49 42.12039 -18.23788 34069 ft 503 kts 230°
2026-04-28 21:49 42.07107 -18.30524 34061 ft 502 kts 230°
2026-04-28 21:50 42.02223 -18.37180 34070 ft 502 kts 230°
2026-04-28 21:50 41.97308 -18.43862 34063 ft 501 kts 230°
2026-04-28 21:51 41.92422 -18.50493 34064 ft 497 kts 230°
2026-04-28 21:51 41.87583 -18.57026 34066 ft 494 kts 230°
2026-04-28 21:52 41.82749 -18.63543 34067 ft 490 kts 230°
2026-04-28 21:52 41.77948 -18.70014 34059 ft 487 kts 230°
2026-04-28 21:53 41.73194 -18.76406 34076 ft 485 kts 230°
2026-04-28 21:53 41.68417 -18.82814 34076 ft 485 kts 230°
2026-04-28 21:54 41.63667 -18.89172 34076 ft 485 kts 230°
2026-04-28 21:54 41.58871 -18.95573 34060 ft 486 kts 230°
2026-04-28 21:55 41.54072 -19.01965 34082 ft 487 kts 230°
2026-04-28 21:55 41.49271 -19.08345 34076 ft 488 kts 230°
2026-04-28 21:56 41.44454 -19.14733 34067 ft 488 kts 229°
2026-04-28 21:56 41.39651 -19.21086 34076 ft 488 kts 229°
2026-04-28 21:57 41.34835 -19.27443 34080 ft 487 kts 229°
2026-04-28 21:57 41.30021 -19.33782 34072 ft 485 kts 229°
2026-04-28 21:58 41.25230 -19.40078 34079 ft 483 kts 229°
2026-04-28 21:58 41.20468 -19.46323 34064 ft 482 kts 229°
2026-04-28 21:59 41.15699 -19.52564 34079 ft 479 kts 229°
2026-04-28 22:00 41.08615 -19.61809 34081 ft 476 kts 229°
2026-04-28 22:00 41.03888 -19.67962 34088 ft 474 kts 229°
2026-04-28 22:01 40.99201 -19.74050 34090 ft 474 kts 229°
2026-04-28 22:01 40.94476 -19.80176 34070 ft 474 kts 229°
2026-04-28 22:02 40.89789 -19.86239 34087 ft 474 kts 228°
2026-04-28 22:02 40.85064 -19.92337 34088 ft 474 kts 228°
2026-04-28 22:03 40.80332 -19.98431 34091 ft 475 kts 228°
2026-04-28 22:03 40.75593 -20.04521 34090 ft 475 kts 228°
2026-04-28 22:04 40.70872 -20.10577 34090 ft 475 kts 228°
2026-04-28 22:04 40.66922 -20.15634 34081 ft 475 kts 228°
2026-04-28 22:05 40.61394 -20.22695 34088 ft 475 kts 228°
2026-04-28 22:05 40.57444 -20.27729 34082 ft 474 kts 228°
2026-04-28 22:06 40.52706 -20.33758 34090 ft 474 kts 228°
2026-04-28 22:06 40.47961 -20.39783 34089 ft 473 kts 228°
2026-04-28 22:07 40.43254 -20.45748 34087 ft 472 kts 227°
2026-04-28 22:07 40.38516 -20.51744 34092 ft 471 kts 227°
2026-04-28 22:08 40.33818 -20.57659 34080 ft 470 kts 227°
2026-04-28 22:08 40.29105 -20.63595 34088 ft 468 kts 227°
2026-04-28 22:09 40.24437 -20.69467 34088 ft 467 kts 227°
2026-04-28 22:09 40.19744 -20.75355 34089 ft 466 kts 227°
2026-04-28 22:10 40.15090 -20.81183 34084 ft 465 kts 227°
2026-04-28 22:10 40.10404 -20.87037 34089 ft 464 kts 227°
2026-04-28 22:11 40.05761 -20.92828 34083 ft 463 kts 227°
2026-04-28 22:11 40.01099 -20.98631 34085 ft 462 kts 227°
2026-04-28 22:12 39.96510 -21.04490 34085 ft 460 kts 229°
2026-04-28 22:12 39.92055 -21.10424 34087 ft 460 kts 229°
2026-04-28 22:13 39.87571 -21.16402 34094 ft 459 kts 228°
2026-04-28 22:13 39.83096 -21.22330 34078 ft 459 kts 228°
2026-04-28 22:14 39.78627 -21.28201 34095 ft 458 kts 228°
2026-04-28 22:14 39.74155 -21.34070 34086 ft 458 kts 228°
2026-04-28 22:15 39.69668 -21.39948 34083 ft 458 kts 228°
2026-04-28 22:15 39.65158 -21.45847 34083 ft 458 kts 228°
2026-04-28 22:16 39.60687 -21.51681 34086 ft 458 kts 227°
2026-04-28 22:16 39.56188 -21.57541 34077 ft 458 kts 227°
2026-04-28 22:17 39.51682 -21.63398 34076 ft 458 kts 227°
2026-04-28 22:17 39.47204 -21.69206 34069 ft 458 kts 227°
2026-04-28 22:18 39.42693 -21.75048 34075 ft 458 kts 227°
2026-04-28 22:18 39.38208 -21.80844 34077 ft 458 kts 227°
2026-04-28 22:19 39.33691 -21.86671 34072 ft 458 kts 227°
2026-04-28 22:19 39.29196 -21.92457 34076 ft 458 kts 227°
2026-04-28 22:20 39.24671 -21.98270 34070 ft 458 kts 227°
2026-04-28 22:20 39.20138 -22.04083 34067 ft 458 kts 226°
2026-04-28 22:21 39.15639 -22.09842 34069 ft 458 kts 226°
2026-04-28 22:21 39.11110 -22.15628 34071 ft 458 kts 226°
2026-04-28 22:22 39.06592 -22.21388 34068 ft 458 kts 226°
2026-04-28 22:22 39.02056 -22.27161 34068 ft 458 kts 226°
2026-04-28 22:23 38.97548 -22.32887 34066 ft 457 kts 226°
2026-04-28 22:23 38.93008 -22.38643 34061 ft 457 kts 226°
2026-04-28 22:24 38.88472 -22.44382 34062 ft 457 kts 226°
2026-04-28 22:24 38.83950 -22.50096 34065 ft 455 kts 226°
2026-04-28 22:25 38.79465 -22.55745 34053 ft 454 kts 226°
2026-04-28 22:25 38.74948 -22.61428 34052 ft 452 kts 226°
2026-04-28 22:26 38.70485 -22.67034 34056 ft 451 kts 226°
2026-04-28 22:26 38.66001 -22.72656 34046 ft 450 kts 226°
2026-04-28 22:27 38.61552 -22.78223 34043 ft 449 kts 226°
2026-04-28 22:27 38.57076 -22.83815 34047 ft 450 kts 225°
2026-04-28 22:28 38.52596 -22.89400 34045 ft 450 kts 225°
2026-04-28 22:28 38.48101 -22.94994 34045 ft 451 kts 225°
2026-04-28 22:29 38.43609 -23.00572 34042 ft 453 kts 225°
2026-04-28 22:29 38.39081 -23.06187 34040 ft 453 kts 225°
2026-04-28 22:30 38.34566 -23.11774 34045 ft 454 kts 225°
2026-04-28 22:30 38.30030 -23.17378 34042 ft 454 kts 225°
2026-04-28 22:31 38.25474 -23.22995 34037 ft 454 kts 225°
2026-04-28 22:31 38.20955 -23.28557 34040 ft 454 kts 225°
2026-04-28 22:32 38.16409 -23.34142 34040 ft 454 kts 225°
2026-04-28 22:32 38.11889 -23.39684 34033 ft 453 kts 225°
2026-04-28 22:33 38.07347 -23.45244 34037 ft 453 kts 224°
2026-04-28 22:33 38.02831 -23.50763 34026 ft 452 kts 224°
2026-04-28 22:34 37.98297 -23.56291 34034 ft 451 kts 224°
2026-04-28 22:34 37.93778 -23.61793 34031 ft 450 kts 224°
2026-04-28 22:35 37.89266 -23.67275 34024 ft 449 kts 224°
2026-04-28 22:35 37.84774 -23.72725 34028 ft 448 kts 224°
2026-04-28 22:36 37.80257 -23.78195 34031 ft 448 kts 224°
2026-04-28 22:36 37.75768 -23.83621 34022 ft 448 kts 224°
2026-04-28 22:37 37.71253 -23.89069 34019 ft 448 kts 224°
2026-04-28 22:37 37.66737 -23.94508 34024 ft 448 kts 224°
2026-04-28 22:38 37.62218 -23.99942 34025 ft 449 kts 224°
2026-04-28 22:38 37.57706 -24.05357 34019 ft 449 kts 224°
2026-04-28 22:39 37.53187 -24.10772 34029 ft 450 kts 223°
2026-04-28 22:39 37.48636 -24.16215 34016 ft 450 kts 223°
2026-04-28 22:40 37.44078 -24.21656 34002 ft 450 kts 223°
2026-04-28 22:40 37.39526 -24.27081 34009 ft 450 kts 223°
2026-04-28 22:41 37.34999 -24.32467 34014 ft 451 kts 223°
2026-04-28 22:41 37.30437 -24.37885 34016 ft 451 kts 223°
2026-04-28 22:42 37.25897 -24.43267 34013 ft 451 kts 223°
2026-04-28 22:42 37.21324 -24.48680 34007 ft 451 kts 223°
2026-04-28 22:43 37.16760 -24.54071 34007 ft 450 kts 223°
2026-04-28 22:43 37.12190 -24.59461 34001 ft 450 kts 223°
2026-04-28 22:44 37.07655 -24.64800 33999 ft 450 kts 223°
2026-04-28 22:44 37.03081 -24.70176 34002 ft 449 kts 223°
2026-04-28 22:45 36.98519 -24.75529 34008 ft 449 kts 223°
2026-04-28 22:45 36.93989 -24.80834 33990 ft 448 kts 223°
2026-04-28 22:46 36.89434 -24.86160 33999 ft 447 kts 223°
2026-04-28 22:46 36.84880 -24.91475 33984 ft 447 kts 223°
2026-04-28 22:47 36.80353 -24.96750 33989 ft 446 kts 223°
2026-04-28 22:47 36.75810 -25.02035 34006 ft 446 kts 223°
2026-04-28 22:48 36.71247 -25.07334 34002 ft 447 kts 223°
2026-04-28 22:48 36.66693 -25.12613 33993 ft 447 kts 223°
2026-04-28 22:49 36.62130 -25.17894 33995 ft 447 kts 223°
2026-04-28 22:49 36.57597 -25.23131 34000 ft 447 kts 223°
2026-04-28 22:50 36.53029 -25.28400 33986 ft 447 kts 223°
2026-04-28 22:50 36.48456 -25.33667 33994 ft 447 kts 223°
2026-04-28 22:51 36.43916 -25.38886 33993 ft 447 kts 223°
2026-04-28 22:51 36.39337 -25.44140 33989 ft 447 kts 223°
2026-04-28 22:52 36.34757 -25.49388 33996 ft 447 kts 223°
2026-04-28 22:52 36.30175 -25.54629 33990 ft 447 kts 223°
2026-04-28 22:53 36.25609 -25.59843 33977 ft 447 kts 223°
2026-04-28 22:53 36.21051 -25.65039 33991 ft 447 kts 223°
2026-04-28 22:54 36.16468 -25.70255 33991 ft 447 kts 223°
2026-04-28 22:54 36.12661 -25.74581 33991 ft 447 kts 223°
2026-04-28 22:55 36.08083 -25.79776 33993 ft 446 kts 223°
2026-04-28 22:55 36.03484 -25.84984 33988 ft 446 kts 223°
2026-04-28 22:56 35.98934 -25.90130 33981 ft 446 kts 223°
2026-04-28 22:56 35.94343 -25.95314 33981 ft 445 kts 223°
2026-04-28 22:57 35.89786 -26.00450 33985 ft 445 kts 223°
2026-04-28 22:57 35.85207 -26.05604 33985 ft 444 kts 223°
2026-04-28 22:58 35.80636 -26.10740 33985 ft 444 kts 222°
2026-04-28 22:58 35.76071 -26.15859 33986 ft 444 kts 222°
2026-04-28 22:59 35.71531 -26.20944 33985 ft 443 kts 222°
2026-04-28 22:59 35.66963 -26.26051 33993 ft 443 kts 222°
2026-04-28 23:00 35.62422 -26.31120 33968 ft 442 kts 223°
2026-04-28 23:00 35.57852 -26.36213 33980 ft 442 kts 223°
2026-04-28 23:01 35.53296 -26.41282 33984 ft 441 kts 223°
2026-04-28 23:01 35.48767 -26.46315 33980 ft 441 kts 223°
2026-04-28 23:02 35.44203 -26.51376 33981 ft 441 kts 223°
2026-04-28 23:02 35.39645 -26.56424 33984 ft 441 kts 222°
2026-04-28 23:03 35.35116 -26.61432 33985 ft 441 kts 223°
2026-04-28 23:03 35.30559 -26.66462 33980 ft 441 kts 223°
2026-04-28 23:04 35.25989 -26.71499 33979 ft 440 kts 222°
2026-04-28 23:04 35.19177 -26.78992 33974 ft 440 kts 222°
2026-04-28 23:05 35.14611 -26.84007 33987 ft 440 kts 222°
2026-04-28 23:05 35.10084 -26.88969 33994 ft 439 kts 222°
2026-04-28 23:06 35.05529 -26.93956 33971 ft 439 kts 222°
2026-04-28 23:06 35.00971 -26.98934 33965 ft 438 kts 222°
2026-04-28 23:07 34.96120 -27.03377 33981 ft 438 kts 216°
2026-04-28 23:07 34.91103 -27.07624 33979 ft 438 kts 216°
2026-04-28 23:08 34.86093 -27.11896 33979 ft 439 kts 216°
2026-04-28 23:08 34.81121 -27.16140 33975 ft 439 kts 216°
2026-04-28 23:09 34.76096 -27.20425 33989 ft 439 kts 216°
2026-04-28 23:09 34.71112 -27.24668 33971 ft 439 kts 216°
2026-04-28 23:10 34.66098 -27.28931 33976 ft 439 kts 216°
2026-04-28 23:10 34.61123 -27.33153 33975 ft 439 kts 216°
2026-04-28 23:11 34.56116 -27.37396 33978 ft 439 kts 216°
2026-04-28 23:11 34.51091 -27.41648 33975 ft 439 kts 216°
2026-04-28 23:12 34.46104 -27.45862 33976 ft 439 kts 216°
2026-04-28 23:12 34.41087 -27.50094 33975 ft 439 kts 216°
2026-04-28 23:13 34.36069 -27.54321 33976 ft 439 kts 216°
2026-04-28 23:13 34.31048 -27.58545 33975 ft 439 kts 216°
2026-04-28 23:14 34.26065 -27.62730 33976 ft 439 kts 216°
2026-04-28 23:14 34.21032 -27.66950 33975 ft 439 kts 216°
2026-04-28 23:15 34.15991 -27.71172 33959 ft 439 kts 216°
2026-04-28 23:15 34.10992 -27.75352 33974 ft 439 kts 216°
2026-04-28 23:16 34.05957 -27.79556 33973 ft 440 kts 216°
2026-04-28 23:16 34.00909 -27.83765 33982 ft 440 kts 216°
2026-04-28 23:17 33.95886 -27.87946 33981 ft 441 kts 216°
2026-04-28 23:17 33.90819 -27.92158 33980 ft 441 kts 216°
2026-04-28 23:18 33.85788 -27.96334 33968 ft 441 kts 216°
2026-04-28 23:18 33.80730 -28.00526 33971 ft 442 kts 216°
2026-04-28 23:19 33.75662 -28.04721 33990 ft 442 kts 216°
2026-04-28 23:19 33.70611 -28.08895 33976 ft 442 kts 216°
2026-04-28 23:20 33.65529 -28.13089 33979 ft 443 kts 216°
2026-04-28 23:20 33.60443 -28.17280 33996 ft 443 kts 216°
2026-04-28 23:21 33.55379 -28.21446 33991 ft 443 kts 216°
2026-04-28 23:21 33.50284 -28.25632 33990 ft 444 kts 216°
2026-04-28 23:22 33.45179 -28.29821 33985 ft 444 kts 216°
2026-04-28 23:22 33.40104 -28.33979 33995 ft 444 kts 216°
2026-04-28 23:23 33.34995 -28.38158 33994 ft 444 kts 216°
2026-04-28 23:23 33.29887 -28.42330 33994 ft 444 kts 216°
2026-04-28 23:24 33.24815 -28.46468 33993 ft 444 kts 216°
2026-04-28 23:24 33.19710 -28.50626 33995 ft 443 kts 216°
2026-04-28 23:25 33.14604 -28.54779 33999 ft 443 kts 216°
2026-04-28 23:25 33.09524 -28.58904 33998 ft 444 kts 216°
2026-04-28 23:26 33.04405 -28.63057 34002 ft 444 kts 216°
2026-04-28 23:26 32.99319 -28.67176 33992 ft 444 kts 216°
2026-04-28 23:27 32.94202 -28.71314 34003 ft 444 kts 216°
2026-04-28 23:27 32.89065 -28.75463 34009 ft 444 kts 216°
2026-04-28 23:28 32.83974 -28.79568 34007 ft 445 kts 216°
2026-04-28 23:28 32.78868 -28.83680 34008 ft 445 kts 216°
2026-04-28 23:29 32.73732 -28.87810 34008 ft 445 kts 216°
2026-04-28 23:29 32.68591 -28.91939 34005 ft 445 kts 216°
2026-04-28 23:30 32.63456 -28.96056 34028 ft 445 kts 216°
2026-04-28 23:30 32.58340 -29.00153 34016 ft 446 kts 216°
2026-04-28 23:31 32.53190 -29.04271 34020 ft 446 kts 216°
2026-04-28 23:31 32.48031 -29.08390 34019 ft 446 kts 216°
2026-04-28 23:32 32.42895 -29.12485 34022 ft 446 kts 216°
2026-04-28 23:32 32.37766 -29.16570 34021 ft 446 kts 216°
2026-04-28 23:33 32.32613 -29.20667 34022 ft 446 kts 216°
2026-04-28 23:33 32.27448 -29.24768 34022 ft 446 kts 216°
2026-04-28 23:34 32.22293 -29.28856 34027 ft 446 kts 216°
2026-04-28 23:34 32.17150 -29.32928 34030 ft 447 kts 216°
2026-04-28 23:35 32.11984 -29.37013 34033 ft 447 kts 216°
2026-04-28 23:35 32.06808 -29.41100 34019 ft 446 kts 216°
2026-04-28 23:36 32.01667 -29.45154 34033 ft 446 kts 216°
2026-04-28 23:36 31.96483 -29.49237 34032 ft 447 kts 216°
2026-04-28 23:37 31.91336 -29.53285 34029 ft 447 kts 216°
2026-04-28 23:37 31.86150 -29.57358 34039 ft 447 kts 216°
2026-04-28 23:38 31.80965 -29.61424 34037 ft 448 kts 216°
2026-04-28 23:38 31.75807 -29.65463 34030 ft 448 kts 216°
2026-04-28 23:39 31.70614 -29.69524 34041 ft 448 kts 216°
2026-04-28 23:39 31.65407 -29.73592 34041 ft 448 kts 216°
2026-04-28 23:40 31.60241 -29.77621 34047 ft 448 kts 216°
2026-04-28 23:40 31.55042 -29.81671 34042 ft 449 kts 216°
2026-04-28 23:41 31.49841 -29.85716 34023 ft 449 kts 216°
2026-04-28 23:41 31.45501 -29.89088 34043 ft 449 kts 216°
2026-04-28 23:42 31.40286 -29.93134 34050 ft 449 kts 216°
2026-04-28 23:42 31.35059 -29.97184 34052 ft 450 kts 216°
2026-04-28 23:43 31.29861 -30.01207 34051 ft 450 kts 216°
2026-04-28 23:43 31.24627 -30.05251 34058 ft 450 kts 216°
2026-04-28 23:44 31.19390 -30.09293 34046 ft 451 kts 216°
2026-04-28 23:44 31.14186 -30.13304 34057 ft 451 kts 216°
2026-04-28 23:45 31.08939 -30.17343 34064 ft 451 kts 216°
2026-04-28 23:45 31.03672 -30.21391 34060 ft 452 kts 216°
2026-04-28 23:46 30.98438 -30.25408 34063 ft 452 kts 216°
2026-04-28 23:46 30.93176 -30.29442 34064 ft 453 kts 216°
2026-04-28 23:47 30.87893 -30.33487 34055 ft 453 kts 216°
2026-04-28 23:47 30.82655 -30.37491 34056 ft 453 kts 216°
2026-04-28 23:48 30.77368 -30.41528 34068 ft 454 kts 216°
2026-04-28 23:48 30.72082 -30.45559 34080 ft 454 kts 216°
2026-04-28 23:49 30.66826 -30.49561 34079 ft 454 kts 216°
2026-04-28 23:49 30.61525 -30.53592 34082 ft 454 kts 216°
2026-04-28 23:50 30.56227 -30.57615 34069 ft 454 kts 216°
2026-04-28 23:50 30.50954 -30.61615 34078 ft 455 kts 216°
2026-04-28 23:51 30.45643 -30.65639 34073 ft 455 kts 216°
2026-04-28 23:51 30.40327 -30.69660 34070 ft 455 kts 217°
2026-04-28 23:52 30.35047 -30.73649 34078 ft 456 kts 217°
2026-04-28 23:52 30.29713 -30.77673 34080 ft 456 kts 217°
2026-04-28 23:53 30.24411 -30.81668 34071 ft 456 kts 217°
2026-04-28 23:53 30.19079 -30.85682 34086 ft 457 kts 217°
2026-04-28 23:54 30.13773 -30.89669 34085 ft 457 kts 217°
2026-04-28 23:54 30.08432 -30.93680 34084 ft 457 kts 217°
2026-04-28 23:55 30.03073 -30.97697 34086 ft 458 kts 217°
2026-04-28 23:55 29.97416 -31.01159 34064 ft 464 kts 206°
2026-04-28 23:56 29.91335 -31.03682 34083 ft 467 kts 204°
2026-04-28 23:56 29.85216 -31.06208 34092 ft 467 kts 205°
2026-04-28 23:57 29.79120 -31.08750 34092 ft 468 kts 205°
2026-04-28 23:57 29.72991 -31.11313 34090 ft 468 kts 205°
2026-04-28 23:58 29.66858 -31.13875 34080 ft 468 kts 205°
2026-04-28 23:58 29.60723 -31.16436 34092 ft 469 kts 205°
2026-04-28 23:59 29.54632 -31.18974 34092 ft 469 kts 205°
2026-04-28 23:59 29.48486 -31.21531 34095 ft 469 kts 205°
2026-04-29 00:00 29.42342 -31.24084 34096 ft 469 kts 205°
2026-04-29 00:00 29.36219 -31.26625 34098 ft 469 kts 205°
2026-04-29 00:01 29.30069 -31.29174 34096 ft 469 kts 205°
2026-04-29 00:01 29.23933 -31.31714 34097 ft 469 kts 205°
2026-04-29 00:02 29.17827 -31.34238 34098 ft 468 kts 205°
2026-04-29 00:02 29.11687 -31.36773 34091 ft 468 kts 205°
2026-04-29 00:03 29.05583 -31.39290 34100 ft 468 kts 205°
2026-04-29 00:03 28.99425 -31.41827 34101 ft 469 kts 205°
2026-04-29 00:04 28.93273 -31.44358 34105 ft 470 kts 205°
2026-04-29 00:04 28.87147 -31.46874 34085 ft 470 kts 205°
2026-04-29 00:05 28.80983 -31.49403 34100 ft 470 kts 206°
2026-04-29 00:05 28.74822 -31.51927 34105 ft 471 kts 206°
2026-04-29 00:06 28.68674 -31.54443 34101 ft 472 kts 206°
2026-04-29 00:06 28.62479 -31.56976 34105 ft 473 kts 206°
2026-04-29 00:07 28.56277 -31.59508 34102 ft 474 kts 206°
2026-04-29 00:07 28.50059 -31.62044 34105 ft 475 kts 206°
2026-04-29 00:08 28.43862 -31.64568 34118 ft 475 kts 206°
2026-04-29 00:08 28.37617 -31.67107 34107 ft 476 kts 206°
2026-04-29 00:09 28.31404 -31.69630 34074 ft 476 kts 207°
2026-04-29 00:09 28.25156 -31.72164 34105 ft 476 kts 207°
2026-04-29 00:10 28.18904 -31.74698 34115 ft 477 kts 207°
2026-04-29 00:10 28.12647 -31.77230 34110 ft 477 kts 207°
2026-04-29 00:11 28.06426 -31.79744 34117 ft 477 kts 207°
2026-04-29 00:12 27.97023 -31.83553 34099 ft 475 kts 208°
2026-04-29 00:12 27.90864 -31.86161 34118 ft 477 kts 207°
2026-04-29 00:13 27.84569 -31.88627 34122 ft 480 kts 207°
2026-04-29 00:13 27.78248 -31.91107 34121 ft 481 kts 207°
2026-04-29 00:14 27.71934 -31.93624 34122 ft 481 kts 208°
2026-04-29 00:14 27.65600 -31.96165 34117 ft 483 kts 208°
2026-04-29 00:15 27.59303 -31.98691 34121 ft 484 kts 208°
2026-04-29 00:15 27.52934 -32.01239 34119 ft 484 kts 208°
2026-04-29 00:16 27.46614 -32.03764 34094 ft 485 kts 208°
2026-04-29 00:16 27.40232 -32.06309 34112 ft 484 kts 208°
2026-04-29 00:17 27.33907 -32.08829 34117 ft 484 kts 209°
2026-04-29 00:17 27.27526 -32.11370 34123 ft 485 kts 209°
2026-04-29 00:18 27.21162 -32.13901 34122 ft 486 kts 209°
2026-04-29 00:18 27.14769 -32.16439 34116 ft 487 kts 209°
2026-04-29 00:19 27.08407 -32.18962 34127 ft 488 kts 209°
2026-04-29 00:19 27.01982 -32.21507 34124 ft 489 kts 209°
2026-04-29 00:20 26.95552 -32.24051 34124 ft 490 kts 209°
2026-04-29 00:20 26.89151 -32.26579 34081 ft 490 kts 209°
2026-04-29 00:21 26.82701 -32.29123 34117 ft 489 kts 209°
2026-04-29 00:21 26.76313 -32.31642 34128 ft 489 kts 209°
2026-04-29 00:22 26.69864 -32.34181 34123 ft 490 kts 209°
2026-04-29 00:22 26.63428 -32.36712 34127 ft 490 kts 210°
2026-04-29 00:23 26.57026 -32.39227 34125 ft 490 kts 209°
2026-04-29 00:23 26.50577 -32.41757 34128 ft 490 kts 209°
2026-04-29 00:24 26.44172 -32.44266 34126 ft 490 kts 209°
2026-04-29 00:24 26.37714 -32.46794 34129 ft 490 kts 209°
2026-04-29 00:25 26.31277 -32.49309 34096 ft 490 kts 210°
2026-04-29 00:25 26.24890 -32.51802 34121 ft 489 kts 210°
2026-04-29 00:26 26.18455 -32.54311 34133 ft 488 kts 210°
2026-04-29 00:26 26.12042 -32.56810 34130 ft 487 kts 210°
2026-04-29 00:27 26.05674 -32.59288 34130 ft 487 kts 210°
2026-04-29 00:27 25.99268 -32.61777 34126 ft 486 kts 210°
2026-04-29 00:28 25.92923 -32.64240 34122 ft 484 kts 210°
2026-04-29 00:28 25.86555 -32.66709 34126 ft 484 kts 210°
2026-04-29 00:29 25.80202 -32.69170 34130 ft 483 kts 210°
2026-04-29 00:29 25.74915 -32.71216 34099 ft 483 kts 210°
2026-04-29 00:30 25.68560 -32.73672 34126 ft 482 kts 210°
2026-04-29 00:30 25.62260 -32.76104 34130 ft 481 kts 210°
2026-04-29 00:31 25.55921 -32.78549 34129 ft 481 kts 210°
2026-04-29 00:31 25.49629 -32.80973 34127 ft 481 kts 210°
2026-04-29 00:32 25.43312 -32.83403 34118 ft 480 kts 210°
2026-04-29 00:32 25.36982 -32.85835 34123 ft 479 kts 210°
2026-04-29 00:33 25.30708 -32.88245 34131 ft 479 kts 210°
2026-04-29 00:33 25.24406 -32.90662 34124 ft 478 kts 210°
2026-04-29 00:34 25.18154 -32.93057 34129 ft 478 kts 210°
2026-04-29 00:34 25.11856 -32.95467 34120 ft 477 kts 210°
2026-04-29 00:35 25.05577 -32.97868 34124 ft 476 kts 210°
2026-04-29 00:35 24.99358 -33.00246 34127 ft 475 kts 210°
2026-04-29 00:36 24.93153 -33.02777 34336 ft 474 kts 212°
2026-04-29 00:36 24.90066 -33.04075 34613 ft 472 kts 212°
2026-04-29 00:36 24.87046 -33.05347 34857 ft 470 kts 212°
2026-04-29 00:36 24.83990 -33.06630 35135 ft 468 kts 212°
2026-04-29 00:37 24.80941 -33.07905 35358 ft 468 kts 212°
2026-04-29 00:37 24.77890 -33.09178 35525 ft 468 kts 212°
2026-04-29 00:37 24.74831 -33.10450 35717 ft 468 kts 212°
2026-04-29 00:37 24.71827 -33.11696 35916 ft 467 kts 212°
2026-04-29 00:38 24.68783 -33.12958 36041 ft 468 kts 212°
2026-04-29 00:38 24.62653 -33.15497 36123 ft 470 kts 212°
2026-04-29 00:39 24.56564 -33.18011 36094 ft 467 kts 212°
2026-04-29 00:39 24.50490 -33.20515 36115 ft 464 kts 212°
2026-04-29 00:40 24.44447 -33.23008 36122 ft 463 kts 212°
2026-04-29 00:40 24.38414 -33.25497 36120 ft 463 kts 212°
2026-04-29 00:41 24.32419 -33.27968 36127 ft 463 kts 212°
2026-04-29 00:41 24.26382 -33.30452 36122 ft 464 kts 212°
2026-04-29 00:42 24.20315 -33.32947 36122 ft 466 kts 212°
2026-04-29 00:42 24.14257 -33.35435 36123 ft 468 kts 212°
2026-04-29 00:43 24.08151 -33.37939 36120 ft 469 kts 212°
2026-04-29 00:43 24.02004 -33.40456 36122 ft 471 kts 212°
2026-04-29 00:44 23.95897 -33.42954 36091 ft 471 kts 212°
2026-04-29 00:44 23.89729 -33.45475 36113 ft 472 kts 212°
2026-04-29 00:45 23.83566 -33.47992 36125 ft 473 kts 212°
2026-04-29 00:45 23.77422 -33.50499 36120 ft 474 kts 211°
2026-04-29 00:46 23.71238 -33.53019 36117 ft 474 kts 211°
2026-04-29 00:46 23.65038 -33.55542 36116 ft 474 kts 211°
2026-04-29 00:47 23.58880 -33.58046 36115 ft 474 kts 211°
2026-04-29 00:47 23.52685 -33.60563 36116 ft 474 kts 211°
2026-04-29 00:48 23.46502 -33.63073 36119 ft 473 kts 211°
2026-04-29 00:48 23.40321 -33.65579 36077 ft 473 kts 211°
2026-04-29 00:49 23.34183 -33.68065 36107 ft 472 kts 211°
2026-04-29 00:49 23.28053 -33.70547 36110 ft 471 kts 211°
2026-04-29 00:50 23.21885 -33.73041 36115 ft 471 kts 211°
2026-04-29 00:50 23.15767 -33.75512 36115 ft 471 kts 211°
2026-04-29 00:51 23.09620 -33.77993 36080 ft 471 kts 211°
2026-04-29 00:51 23.03462 -33.80476 36111 ft 471 kts 211°
2026-04-29 00:52 22.97306 -33.82955 36113 ft 471 kts 211°
2026-04-29 00:52 22.91196 -33.85413 36116 ft 471 kts 211°
2026-04-29 00:53 22.85034 -33.87891 36116 ft 471 kts 211°
2026-04-29 00:53 22.78909 -33.90350 36099 ft 471 kts 210°
2026-04-29 00:54 22.72750 -33.92821 36108 ft 471 kts 210°
2026-04-29 00:54 22.66585 -33.95292 36120 ft 472 kts 210°
2026-04-29 00:55 22.60420 -33.97760 36123 ft 472 kts 210°
2026-04-29 00:55 22.54277 -34.00218 36122 ft 472 kts 210°
2026-04-29 00:56 22.48098 -34.02688 36123 ft 472 kts 210°
2026-04-29 00:56 22.41966 -34.05136 36122 ft 472 kts 210°
2026-04-29 00:57 22.35776 -34.07605 36121 ft 473 kts 210°
2026-04-29 00:57 22.29625 -34.10056 36129 ft 473 kts 210°
2026-04-29 00:58 22.23448 -34.12515 36125 ft 473 kts 210°
2026-04-29 00:58 22.17252 -34.14980 36112 ft 473 kts 210°
2026-04-29 00:59 22.11114 -34.17419 36120 ft 473 kts 210°
2026-04-29 00:59 22.04935 -34.19872 36129 ft 473 kts 210°
2026-04-29 01:00 21.98753 -34.22324 36121 ft 473 kts 210°
2026-04-29 01:00 21.92606 -34.24760 36128 ft 473 kts 210°
2026-04-29 01:01 21.86414 -34.27212 36123 ft 473 kts 209°
2026-04-29 01:01 21.80232 -34.29657 36125 ft 473 kts 209°
2026-04-29 01:02 21.74080 -34.32088 36125 ft 473 kts 209°
2026-04-29 01:02 21.67889 -34.34533 36128 ft 474 kts 209°
2026-04-29 01:03 21.61686 -34.36980 36127 ft 474 kts 209°
2026-04-29 01:03 21.55515 -34.39412 36120 ft 474 kts 209°
2026-04-29 01:04 21.49319 -34.41851 36122 ft 474 kts 209°
2026-04-29 01:04 21.43109 -34.44294 36128 ft 474 kts 209°
2026-04-29 01:05 21.36951 -34.46714 36141 ft 474 kts 209°
2026-04-29 01:05 21.30732 -34.49157 36109 ft 474 kts 208°
2026-04-29 01:06 21.24563 -34.51577 36123 ft 474 kts 208°
2026-04-29 01:06 21.18352 -34.54011 36129 ft 474 kts 208°
2026-04-29 01:07 21.12143 -34.56443 36131 ft 474 kts 208°
2026-04-29 01:07 21.05969 -34.58859 36134 ft 474 kts 208°
2026-04-29 01:08 20.99744 -34.61292 36109 ft 475 kts 208°
2026-04-29 01:08 20.93561 -34.63707 36126 ft 474 kts 208°
2026-04-29 01:09 20.87343 -34.66134 36131 ft 475 kts 208°
2026-04-29 01:09 20.81163 -34.68544 36129 ft 475 kts 208°
2026-04-29 01:10 20.74927 -34.70973 36130 ft 475 kts 208°
2026-04-29 01:10 20.68713 -34.73392 36129 ft 475 kts 208°
2026-04-29 01:11 20.62531 -34.75795 36130 ft 475 kts 208°
2026-04-29 01:11 20.56309 -34.78213 36124 ft 475 kts 208°
2026-04-29 01:12 20.50086 -34.80628 36132 ft 475 kts 208°
2026-04-29 01:12 20.43897 -34.83029 36130 ft 475 kts 208°
2026-04-29 01:13 20.37678 -34.85439 36121 ft 475 kts 208°
2026-04-29 01:13 20.31451 -34.87850 36131 ft 475 kts 208°
2026-04-29 01:14 20.25224 -34.90259 36125 ft 475 kts 208°
2026-04-29 01:14 20.19043 -34.92649 36124 ft 475 kts 208°
2026-04-29 01:15 20.12820 -34.95053 36131 ft 475 kts 208°
2026-04-29 01:15 20.07644 -34.97051 36117 ft 475 kts 207°
2026-04-29 01:16 20.00408 -34.99830 36121 ft 476 kts 206°
2026-04-29 01:16 19.94999 -35.01377 36128 ft 482 kts 201°
2026-04-29 01:17 19.88485 -35.03015 36129 ft 483 kts 201°
2026-04-29 01:17 19.81938 -35.04672 36125 ft 483 kts 201°
2026-04-29 01:18 19.75438 -35.06341 36120 ft 483 kts 201°
2026-04-29 01:18 19.65617 -35.08876 36122 ft 484 kts 201°
2026-04-29 01:19 19.59069 -35.10564 36123 ft 484 kts 201°
2026-04-29 01:19 19.52542 -35.12244 36123 ft 484 kts 201°
2026-04-29 01:20 19.45984 -35.13931 36119 ft 484 kts 200°
2026-04-29 01:20 19.39419 -35.15617 36124 ft 484 kts 200°
2026-04-29 01:21 19.32866 -35.17300 36120 ft 485 kts 200°
2026-04-29 01:21 19.26339 -35.18974 36119 ft 485 kts 200°
2026-04-29 01:22 19.19764 -35.20660 36106 ft 485 kts 200°
2026-04-29 01:22 19.13232 -35.22333 36123 ft 484 kts 200°
2026-04-29 01:23 19.06663 -35.24013 36122 ft 485 kts 200°
2026-04-29 01:23 19.00137 -35.25682 36122 ft 485 kts 200°
2026-04-29 01:24 18.93575 -35.27358 36122 ft 484 kts 200°
2026-04-29 01:24 18.87014 -35.29034 36118 ft 484 kts 200°
2026-04-29 01:25 18.80478 -35.30701 36111 ft 484 kts 200°
2026-04-29 01:25 18.73909 -35.32375 36128 ft 485 kts 200°
2026-04-29 01:26 18.67344 -35.34047 36132 ft 485 kts 200°
2026-04-29 01:26 18.60823 -35.35707 36113 ft 485 kts 199°
2026-04-29 01:27 18.54251 -35.37378 36115 ft 485 kts 199°
2026-04-29 01:27 18.47677 -35.39048 36119 ft 485 kts 199°
2026-04-29 01:28 18.41119 -35.40713 36117 ft 485 kts 199°
2026-04-29 01:28 18.34584 -35.42372 36117 ft 485 kts 199°
2026-04-29 01:29 18.28033 -35.44118 36108 ft 482 kts 204°
2026-04-29 01:29 18.21961 -35.46846 36114 ft 473 kts 214°
2026-04-29 01:30 18.16363 -35.50441 36109 ft 470 kts 217°
2026-04-29 01:30 18.10780 -35.54079 36111 ft 471 kts 217°
2026-04-29 01:31 18.05224 -35.57670 36113 ft 471 kts 217°
2026-04-29 01:31 17.99614 -35.61276 36102 ft 472 kts 216°
2026-04-29 01:32 17.93998 -35.64878 36111 ft 472 kts 216°
2026-04-29 01:32 17.88409 -35.68460 36115 ft 472 kts 216°
2026-04-29 01:33 17.82784 -35.72063 36114 ft 473 kts 216°
2026-04-29 01:33 17.77199 -35.75638 36112 ft 473 kts 216°
2026-04-29 01:34 17.71573 -35.79237 36112 ft 473 kts 216°
2026-04-29 01:34 17.65950 -35.82832 36114 ft 473 kts 216°
2026-04-29 01:35 17.60359 -35.86403 36114 ft 473 kts 216°
2026-04-29 01:35 17.54737 -35.89992 36109 ft 472 kts 216°
2026-04-29 01:36 17.49117 -35.93576 36110 ft 472 kts 216°
2026-04-29 01:36 17.43493 -35.97161 36112 ft 472 kts 216°
2026-04-29 01:37 17.37912 -36.00716 36105 ft 472 kts 216°
2026-04-29 01:37 17.32292 -36.04292 36104 ft 471 kts 216°
2026-04-29 01:38 17.26711 -36.07842 36113 ft 471 kts 216°
2026-04-29 01:38 17.21096 -36.11411 36109 ft 472 kts 216°
2026-04-29 01:39 17.15471 -36.14983 36112 ft 472 kts 216°
2026-04-29 01:39 17.09886 -36.18527 36111 ft 472 kts 216°
2026-04-29 01:40 17.04257 -36.22097 36098 ft 472 kts 216°
2026-04-29 01:40 16.98629 -36.25663 36106 ft 473 kts 215°
2026-04-29 01:41 16.93030 -36.29209 36103 ft 473 kts 215°
2026-04-29 01:41 16.87397 -36.32773 36110 ft 473 kts 215°
2026-04-29 01:42 16.81753 -36.36342 36105 ft 473 kts 215°
2026-04-29 01:42 16.76137 -36.39892 36107 ft 474 kts 215°
2026-04-29 01:43 16.70485 -36.43461 36099 ft 474 kts 215°
2026-04-29 01:43 16.64827 -36.47031 36105 ft 474 kts 215°
2026-04-29 01:44 16.59221 -36.50566 36107 ft 474 kts 215°
2026-04-29 01:44 16.53560 -36.54133 36105 ft 474 kts 215°
2026-04-29 01:45 16.47898 -36.57699 36107 ft 474 kts 215°
2026-04-29 01:45 16.42277 -36.61236 36105 ft 474 kts 215°
2026-04-29 01:46 16.36619 -36.64794 36095 ft 474 kts 215°
2026-04-29 01:46 16.30955 -36.68354 36094 ft 475 kts 215°
2026-04-29 01:47 16.25291 -36.71911 36112 ft 475 kts 215°
2026-04-29 01:47 16.19660 -36.75445 36106 ft 475 kts 215°
2026-04-29 01:48 16.13987 -36.79002 36111 ft 476 kts 215°
2026-04-29 01:48 16.08310 -36.82560 36109 ft 476 kts 215°
2026-04-29 01:49 16.02660 -36.86100 36097 ft 476 kts 214°
2026-04-29 01:49 15.96968 -36.89662 36100 ft 477 kts 214°
2026-04-29 01:50 15.91265 -36.93229 36099 ft 478 kts 214°
2026-04-29 01:50 15.85600 -36.96770 36098 ft 478 kts 214°
2026-04-29 01:51 15.79879 -37.00344 36090 ft 478 kts 214°
2026-04-29 01:51 15.74166 -37.03910 36090 ft 479 kts 214°
2026-04-29 01:52 15.68491 -37.07450 36091 ft 479 kts 214°
2026-04-29 01:52 15.62753 -37.11027 36092 ft 480 kts 214°
2026-04-29 01:53 15.57049 -37.14581 36092 ft 481 kts 214°
2026-04-29 01:53 15.51311 -37.18153 36088 ft 481 kts 214°
2026-04-29 01:54 15.45563 -37.21729 36088 ft 481 kts 214°
2026-04-29 01:54 15.39802 -37.25313 36082 ft 481 kts 213°
2026-04-29 01:55 15.34088 -37.28858 36087 ft 481 kts 213°
2026-04-29 01:55 15.28336 -37.32432 36087 ft 481 kts 213°
2026-04-29 01:56 15.22617 -37.35983 36087 ft 481 kts 213°
2026-04-29 01:56 15.16865 -37.39551 36087 ft 481 kts 213°
2026-04-29 01:57 15.11101 -37.43124 36083 ft 481 kts 213°
2026-04-29 01:57 15.05385 -37.46665 36082 ft 481 kts 213°
2026-04-29 01:58 14.99493 -37.49969 36080 ft 482 kts 205°
2026-04-29 01:58 14.93164 -37.52189 36088 ft 483 kts 198°
2026-04-29 01:59 14.86684 -37.54116 36081 ft 483 kts 198°
2026-04-29 01:59 14.80261 -37.56046 36082 ft 483 kts 198°
2026-04-29 02:00 14.73805 -37.58011 36080 ft 483 kts 198°
2026-04-29 02:00 14.67353 -37.59984 36086 ft 483 kts 198°
2026-04-29 02:01 14.61987 -37.61625 36084 ft 483 kts 198°
2026-04-29 02:01 14.55528 -37.63598 36076 ft 483 kts 198°
2026-04-29 02:02 14.49113 -37.65556 36077 ft 483 kts 198°
2026-04-29 02:02 14.42646 -37.67528 36076 ft 484 kts 198°
2026-04-29 02:03 14.36184 -37.69497 36076 ft 484 kts 198°
2026-04-29 02:03 14.29750 -37.71457 36078 ft 484 kts 198°
2026-04-29 02:04 14.23279 -37.73426 36077 ft 484 kts 198°
2026-04-29 02:04 14.16848 -37.75383 36071 ft 484 kts 198°
2026-04-29 02:05 14.10389 -37.77347 36077 ft 483 kts 198°
2026-04-29 02:05 14.03925 -37.79311 36074 ft 483 kts 198°
2026-04-29 02:06 13.97499 -37.81262 36076 ft 483 kts 198°
2026-04-29 02:06 13.91047 -37.83220 36076 ft 483 kts 198°
2026-04-29 02:07 13.84633 -37.85166 36073 ft 482 kts 198°
2026-04-29 02:07 13.78182 -37.87121 36070 ft 482 kts 198°
2026-04-29 02:08 13.71737 -37.89074 36068 ft 482 kts 198°
2026-04-29 02:08 13.65327 -37.91015 36067 ft 482 kts 198°
2026-04-29 02:09 13.58874 -37.92968 36061 ft 482 kts 198°
2026-04-29 02:09 13.52429 -37.94917 36068 ft 482 kts 198°
2026-04-29 02:10 13.46020 -37.96854 36070 ft 482 kts 198°
2026-04-29 02:10 13.39564 -37.98805 36072 ft 482 kts 198°
2026-04-29 02:11 13.33153 -38.00741 36065 ft 482 kts 198°
2026-04-29 02:11 13.26697 -38.02689 36061 ft 482 kts 198°
2026-04-29 02:12 13.20260 -38.04630 36063 ft 482 kts 198°
2026-04-29 02:12 13.13861 -38.06559 36063 ft 482 kts 198°
2026-04-29 02:13 13.07415 -38.08501 36062 ft 482 kts 198°
2026-04-29 02:13 13.01015 -38.10428 36064 ft 481 kts 198°
2026-04-29 02:14 12.94578 -38.12366 36065 ft 481 kts 198°
2026-04-29 02:14 12.88142 -38.14302 36063 ft 481 kts 198°
2026-04-29 02:15 12.81758 -38.16221 36059 ft 481 kts 198°
2026-04-29 02:15 12.75327 -38.18153 36060 ft 480 kts 198°
2026-04-29 02:16 12.68931 -38.20074 36052 ft 480 kts 198°
2026-04-29 02:16 12.62517 -38.22000 36058 ft 480 kts 198°
2026-04-29 02:17 12.56086 -38.23928 36056 ft 480 kts 198°
2026-04-29 02:17 12.49665 -38.25852 36054 ft 480 kts 198°
2026-04-29 02:18 12.43272 -38.27769 36056 ft 480 kts 198°
2026-04-29 02:18 12.36885 -38.29683 36051 ft 480 kts 198°
2026-04-29 02:19 12.30451 -38.31609 36050 ft 480 kts 197°
2026-04-29 02:19 12.24075 -38.33516 36047 ft 480 kts 197°
2026-04-29 02:20 12.17647 -38.35439 36050 ft 480 kts 197°
2026-04-29 02:20 12.11209 -38.37364 36049 ft 480 kts 197°
2026-04-29 02:21 12.04844 -38.39266 36050 ft 480 kts 197°
2026-04-29 02:21 11.98424 -38.41182 36042 ft 480 kts 197°
2026-04-29 02:22 11.92049 -38.43084 36046 ft 479 kts 197°
2026-04-29 02:22 11.85642 -38.44996 36047 ft 479 kts 197°
2026-04-29 02:23 11.79228 -38.46909 36045 ft 479 kts 197°
2026-04-29 02:23 11.72829 -38.48817 36040 ft 478 kts 197°
2026-04-29 02:24 11.66463 -38.50713 36043 ft 478 kts 197°
2026-04-29 02:25 11.56899 -38.53560 36038 ft 478 kts 197°
2026-04-29 02:25 11.50509 -38.55462 36043 ft 478 kts 197°
2026-04-29 02:26 11.44143 -38.57355 36044 ft 478 kts 197°
2026-04-29 02:26 11.37752 -38.59255 36039 ft 478 kts 197°
2026-04-29 02:27 11.31352 -38.61157 36039 ft 478 kts 197°
2026-04-29 02:27 11.24991 -38.63045 36037 ft 478 kts 197°
2026-04-29 02:28 11.18601 -38.64942 36039 ft 478 kts 197°
2026-04-29 02:28 11.12200 -38.66839 36033 ft 479 kts 197°
2026-04-29 02:29 11.05806 -38.68740 36031 ft 479 kts 197°
2026-04-29 02:29 10.99446 -38.70622 36038 ft 478 kts 197°
2026-04-29 02:30 10.93043 -38.72519 36034 ft 478 kts 197°
2026-04-29 02:30 10.86650 -38.74414 36031 ft 478 kts 197°
2026-04-29 02:31 10.80250 -38.76309 36027 ft 479 kts 197°
2026-04-29 02:31 10.73877 -38.78195 36032 ft 478 kts 197°
2026-04-29 02:32 10.67467 -38.80091 36034 ft 478 kts 197°
2026-04-29 02:32 10.61061 -38.81985 36028 ft 479 kts 197°
2026-04-29 02:33 10.54701 -38.83864 36022 ft 479 kts 196°
2026-04-29 02:33 10.48298 -38.85756 36029 ft 478 kts 196°
2026-04-29 02:34 10.41895 -38.87646 36032 ft 478 kts 196°
2026-04-29 02:34 10.35494 -38.89536 36025 ft 478 kts 196°
2026-04-29 02:35 10.29136 -38.91412 36019 ft 479 kts 196°
2026-04-29 02:35 10.22734 -38.93305 36023 ft 478 kts 196°
2026-04-29 02:36 10.16324 -38.95189 36025 ft 478 kts 196°
2026-04-29 02:36 10.09957 -38.97063 36020 ft 479 kts 196°
2026-04-29 02:37 10.03561 -38.98950 36016 ft 479 kts 196°
2026-04-29 02:37 9.97224 -39.01043 36023 ft 478 kts 201°
2026-04-29 02:38 9.91042 -39.03574 36026 ft 478 kts 202°
2026-04-29 02:38 9.84894 -39.06098 36019 ft 479 kts 201°
2026-04-29 02:39 9.78697 -39.08626 36016 ft 480 kts 201°
2026-04-29 02:39 9.72491 -39.11143 36016 ft 480 kts 201°
2026-04-29 02:40 9.66282 -39.13656 36021 ft 479 kts 201°
2026-04-29 02:40 9.60086 -39.16162 36019 ft 479 kts 201°
2026-04-29 02:41 9.53934 -39.18649 36015 ft 478 kts 201°
2026-04-29 02:41 9.47749 -39.21146 36007 ft 477 kts 201°
2026-04-29 02:42 9.41578 -39.23642 36012 ft 477 kts 201°
2026-04-29 02:42 9.35412 -39.26134 36011 ft 476 kts 201°
2026-04-29 02:43 9.29286 -39.28608 36011 ft 477 kts 201°
2026-04-29 02:43 9.23109 -39.31101 36005 ft 477 kts 201°
2026-04-29 02:44 9.16968 -39.33579 36007 ft 478 kts 201°
2026-04-29 02:44 9.10782 -39.36073 36012 ft 478 kts 201°
2026-04-29 02:45 9.04623 -39.38556 36012 ft 478 kts 201°
2026-04-29 02:45 8.98429 -39.41052 36002 ft 478 kts 201°
2026-04-29 02:46 8.92243 -39.43545 36002 ft 478 kts 201°
2026-04-29 02:46 8.86100 -39.46019 36004 ft 478 kts 201°
2026-04-29 02:47 8.79924 -39.48506 36005 ft 477 kts 201°
2026-04-29 02:47 8.73740 -39.50995 36003 ft 477 kts 200°
2026-04-29 02:48 8.67560 -39.53479 36002 ft 478 kts 200°
2026-04-29 02:48 8.61406 -39.55955 36005 ft 478 kts 201°
2026-04-29 02:49 8.56246 -39.58030 36010 ft 478 kts 200°
2026-04-29 02:49 8.50042 -39.60524 36003 ft 478 kts 200°
2026-04-29 02:50 8.43891 -39.62995 35999 ft 479 kts 200°
2026-04-29 02:50 8.37688 -39.65486 36002 ft 478 kts 201°
2026-04-29 02:51 8.31528 -39.67959 36006 ft 478 kts 200°
2026-04-29 02:51 8.25328 -39.70448 35999 ft 478 kts 200°
2026-04-29 02:52 8.19137 -39.72932 35995 ft 478 kts 200°
2026-04-29 02:52 8.12981 -39.75401 35994 ft 478 kts 201°
2026-04-29 02:53 8.06789 -39.77884 35999 ft 478 kts 200°
2026-04-29 02:53 8.00589 -39.80366 36002 ft 478 kts 200°
2026-04-29 02:54 7.94399 -39.82846 35992 ft 479 kts 200°
2026-04-29 02:54 7.88237 -39.85316 35990 ft 479 kts 200°
2026-04-29 02:55 7.82036 -39.87798 35997 ft 479 kts 200°
2026-04-29 02:55 7.75829 -39.90281 35994 ft 479 kts 200°
2026-04-29 02:56 7.69652 -39.92756 35991 ft 480 kts 200°
2026-04-29 02:56 7.63419 -39.95251 35989 ft 480 kts 200°
2026-04-29 02:57 7.57240 -39.97722 35992 ft 480 kts 200°
2026-04-29 02:57 7.51022 -40.00207 35994 ft 481 kts 200°
2026-04-29 02:58 7.44796 -40.02695 35994 ft 481 kts 200°
2026-04-29 02:58 7.38603 -40.05170 35987 ft 481 kts 200°
2026-04-29 02:59 7.32362 -40.07663 35988 ft 481 kts 200°
2026-04-29 02:59 7.26169 -40.10136 35992 ft 481 kts 200°
2026-04-29 03:00 7.19934 -40.12625 35988 ft 480 kts 200°
2026-04-29 03:00 7.13742 -40.15096 35988 ft 480 kts 200°
2026-04-29 03:01 7.07533 -40.17573 35986 ft 480 kts 200°
2026-04-29 03:01 7.01346 -40.20040 35986 ft 480 kts 200°
2026-04-29 03:02 6.95120 -40.22523 35992 ft 479 kts 200°
2026-04-29 03:02 6.88901 -40.25002 35986 ft 480 kts 200°
2026-04-29 03:03 6.82731 -40.27460 35983 ft 480 kts 200°
2026-04-29 03:03 6.76514 -40.29937 35988 ft 480 kts 200°
2026-04-29 03:04 6.70293 -40.32415 35989 ft 480 kts 200°
2026-04-29 03:04 6.64103 -40.34879 35979 ft 481 kts 200°
2026-04-29 03:05 6.57865 -40.37362 35982 ft 481 kts 200°
2026-04-29 03:05 6.51656 -40.39833 35980 ft 482 kts 200°
2026-04-29 03:06 6.45404 -40.42321 35982 ft 482 kts 200°
2026-04-29 03:06 6.39186 -40.44794 35983 ft 482 kts 199°
2026-04-29 03:07 6.32924 -40.47284 35981 ft 483 kts 199°
2026-04-29 03:07 6.26711 -40.49752 35983 ft 483 kts 199°
2026-04-29 03:08 6.20453 -40.52239 35982 ft 483 kts 199°
2026-04-29 03:08 6.14178 -40.54733 35982 ft 483 kts 199°
2026-04-29 03:09 6.07952 -40.57207 35978 ft 483 kts 199°
2026-04-29 03:09 6.01680 -40.59698 35979 ft 484 kts 199°
2026-04-29 03:10 5.95413 -40.62186 35981 ft 484 kts 199°
2026-04-29 03:10 5.89180 -40.64660 35984 ft 484 kts 199°
2026-04-29 03:11 5.82904 -40.67151 35976 ft 484 kts 199°
2026-04-29 03:11 5.76671 -40.69624 35982 ft 484 kts 199°
2026-04-29 03:12 5.70392 -40.72114 35983 ft 484 kts 199°
2026-04-29 03:12 5.64158 -40.74587 35979 ft 484 kts 199°
2026-04-29 03:13 5.57876 -40.77077 35977 ft 484 kts 199°
2026-04-29 03:13 5.51649 -40.79545 35975 ft 484 kts 199°
2026-04-29 03:14 5.45360 -40.82037 35981 ft 484 kts 199°
2026-04-29 03:14 5.39126 -40.84507 35978 ft 484 kts 199°
2026-04-29 03:15 5.32854 -40.86992 35978 ft 484 kts 199°
2026-04-29 03:15 5.26619 -40.89461 35977 ft 484 kts 199°
2026-04-29 03:16 5.20343 -40.91947 35982 ft 484 kts 199°
2026-04-29 03:16 5.14071 -40.94430 35981 ft 484 kts 199°
2026-04-29 03:17 5.07830 -40.96900 35977 ft 484 kts 199°
2026-04-29 03:17 5.01578 -40.99389 35973 ft 485 kts 201°
2026-04-29 03:18 4.95613 -41.02612 35971 ft 488 kts 210°
2026-04-29 03:18 4.89861 -41.06259 35976 ft 488 kts 210°
2026-04-29 03:19 4.84130 -41.09878 35975 ft 488 kts 210°
2026-04-29 03:19 4.78389 -41.13470 35975 ft 489 kts 210°
2026-04-29 03:20 4.72606 -41.17073 35978 ft 489 kts 210°
2026-04-29 03:20 4.66814 -41.20679 35975 ft 489 kts 210°
2026-04-29 03:21 4.61037 -41.24275 35977 ft 489 kts 210°
2026-04-29 03:21 4.55288 -41.27855 35977 ft 489 kts 210°
2026-04-29 03:22 4.49486 -41.31468 35977 ft 489 kts 210°
2026-04-29 03:22 4.43708 -41.35064 35972 ft 489 kts 210°
2026-04-29 03:23 4.37942 -41.38653 35976 ft 489 kts 210°
2026-04-29 03:23 4.32137 -41.42265 35974 ft 489 kts 210°
2026-04-29 03:24 4.26371 -41.45852 35980 ft 490 kts 210°
2026-04-29 03:24 4.20574 -41.49459 35975 ft 490 kts 210°
2026-04-29 03:25 4.14767 -41.53070 35974 ft 490 kts 210°
2026-04-29 03:25 4.08998 -41.56657 35976 ft 490 kts 210°
2026-04-29 03:26 4.03190 -41.60268 35974 ft 490 kts 210°
2026-04-29 03:26 3.97393 -41.63871 35976 ft 490 kts 210°
2026-04-29 03:27 3.91619 -41.67460 35975 ft 490 kts 210°
2026-04-29 03:27 3.85816 -41.71066 35975 ft 490 kts 210°
2026-04-29 03:28 3.80046 -41.74651 35976 ft 490 kts 210°
2026-04-29 03:28 3.74238 -41.78259 35975 ft 490 kts 210°
2026-04-29 03:29 3.68431 -41.81865 35975 ft 490 kts 210°
2026-04-29 03:29 3.62661 -41.85449 35972 ft 489 kts 210°
2026-04-29 03:30 3.56868 -41.89046 35971 ft 489 kts 210°
2026-04-29 03:30 3.51117 -41.92616 35972 ft 488 kts 210°
2026-04-29 03:31 3.42447 -41.97998 35973 ft 488 kts 210°
2026-04-29 03:31 3.36705 -42.01559 35972 ft 487 kts 210°
2026-04-29 03:32 3.30925 -42.05148 35971 ft 487 kts 210°
2026-04-29 03:32 3.25157 -42.08724 35967 ft 487 kts 211°
2026-04-29 03:33 3.19425 -42.12280 35968 ft 487 kts 210°
2026-04-29 03:33 3.13651 -42.15862 35968 ft 487 kts 210°
2026-04-29 03:34 3.07914 -42.19421 35966 ft 487 kts 210°
2026-04-29 03:34 3.02132 -42.23006 35967 ft 488 kts 210°
2026-04-29 03:35 2.96344 -42.26595 35968 ft 489 kts 211°
2026-04-29 03:35 2.90593 -42.30160 35968 ft 489 kts 210°
2026-04-29 03:36 2.84787 -42.33759 35968 ft 490 kts 210°
2026-04-29 03:36 2.79017 -42.37335 35968 ft 490 kts 210°
2026-04-29 03:37 2.74184 -42.40325 35965 ft 490 kts 210°
2026-04-29 03:37 2.67440 -42.44509 35964 ft 489 kts 211°
2026-04-29 03:38 2.62588 -42.47518 35968 ft 489 kts 210°
2026-04-29 03:38 2.56849 -42.51073 35967 ft 488 kts 210°
2026-04-29 03:39 2.51074 -42.54649 35966 ft 488 kts 210°
2026-04-29 03:39 2.45296 -42.58227 35966 ft 487 kts 211°
2026-04-29 03:40 2.39529 -42.61799 35964 ft 487 kts 211°
2026-04-29 03:40 2.33810 -42.65341 35964 ft 487 kts 211°
2026-04-29 03:41 2.28046 -42.68910 35968 ft 487 kts 210°
2026-04-29 03:41 2.22288 -42.72476 35972 ft 486 kts 211°
2026-04-29 03:42 2.16529 -42.76042 35963 ft 486 kts 211°
2026-04-29 03:42 2.10820 -42.79557 35967 ft 484 kts 208°
2026-04-29 03:43 2.04707 -42.82356 36000 ft 482 kts 197°
2026-04-29 03:43 1.98254 -42.84309 36411 ft 481 kts 195°
2026-04-29 03:44 1.95055 -42.85261 36818 ft 476 kts 196°
2026-04-29 03:44 1.91924 -42.86196 37140 ft 474 kts 197°
2026-04-29 03:44 1.88756 -42.87150 37317 ft 474 kts 197°
2026-04-29 03:44 1.85589 -42.88112 37586 ft 473 kts 197°
2026-04-29 03:45 1.82435 -42.89074 37762 ft 473 kts 197°
2026-04-29 03:45 1.79317 -42.90027 37834 ft 475 kts 197°
2026-04-29 03:45 1.72970 -42.91970 37958 ft 476 kts 197°
2026-04-29 03:46 1.66679 -42.93896 37960 ft 472 kts 198°
2026-04-29 03:46 1.60398 -42.95818 37961 ft 469 kts 198°
2026-04-29 03:47 1.54194 -42.97715 37961 ft 468 kts 198°
2026-04-29 03:47 1.47965 -42.99619 37970 ft 468 kts 198°
2026-04-29 03:48 1.41753 -43.01519 37961 ft 469 kts 198°
2026-04-29 03:48 1.35476 -43.03437 37966 ft 472 kts 198°
2026-04-29 03:49 1.29175 -43.05362 37970 ft 474 kts 198°
2026-04-29 03:49 1.22874 -43.07290 37966 ft 476 kts 198°
2026-04-29 03:50 1.16541 -43.09226 37963 ft 478 kts 198°
2026-04-29 03:50 1.10157 -43.11177 37968 ft 478 kts 198°
2026-04-29 03:51 1.03827 -43.13112 37965 ft 478 kts 198°
2026-04-29 03:51 0.97460 -43.15058 37956 ft 477 kts 198°
2026-04-29 03:52 0.91108 -43.16999 37969 ft 476 kts 198°
2026-04-29 03:52 0.84790 -43.18930 37963 ft 475 kts 198°
2026-04-29 03:53 0.78467 -43.20863 37971 ft 474 kts 198°
2026-04-29 03:53 0.72199 -43.22776 37964 ft 472 kts 198°
2026-04-29 03:54 0.65908 -43.24699 37966 ft 471 kts 198°
2026-04-29 03:54 0.59639 -43.26615 37967 ft 470 kts 198°
2026-04-29 03:55 0.53411 -43.28519 37969 ft 469 kts 198°
2026-04-29 03:55 0.47157 -43.30430 37966 ft 470 kts 198°
2026-04-29 03:56 0.40922 -43.32335 37970 ft 470 kts 198°
2026-04-29 03:56 0.34652 -43.34251 37971 ft 472 kts 198°
2026-04-29 03:57 0.28353 -43.36176 37967 ft 473 kts 198°
2026-04-29 03:57 0.22047 -43.38102 37963 ft 474 kts 197°
2026-04-29 03:58 0.15767 -43.40020 37961 ft 475 kts 197°
2026-04-29 03:58 0.09428 -43.41957 37960 ft 475 kts 197°
2026-04-29 03:59 0.03127 -43.43883 37958 ft 476 kts 197°
2026-04-29 03:59 -0.03208 -43.45818 37966 ft 475 kts 197°
2026-04-29 04:00 -0.09549 -43.47756 37962 ft 475 kts 197°
2026-04-29 04:00 -0.15846 -43.49679 37961 ft 475 kts 197°
2026-04-29 04:01 -0.22171 -43.51612 37961 ft 475 kts 197°
2026-04-29 04:01 -0.28460 -43.53534 37966 ft 474 kts 197°
2026-04-29 04:02 -0.34780 -43.55465 37961 ft 474 kts 197°
2026-04-29 04:02 -0.41097 -43.57395 37962 ft 474 kts 197°
2026-04-29 04:03 -0.47408 -43.59324 37969 ft 474 kts 197°
2026-04-29 04:03 -0.53687 -43.61242 37964 ft 474 kts 197°
2026-04-29 04:04 -0.60020 -43.63179 37954 ft 475 kts 196°
2026-04-29 04:04 -0.66340 -43.65108 37969 ft 475 kts 196°
2026-04-29 04:05 -0.72633 -43.67030 37959 ft 476 kts 196°
2026-04-29 04:05 -0.78983 -43.68971 37964 ft 476 kts 196°
2026-04-29 04:06 -0.85334 -43.70911 37962 ft 477 kts 196°
2026-04-29 04:06 -0.91686 -43.72852 37961 ft 477 kts 196°
2026-04-29 04:07 -0.98025 -43.74792 37960 ft 478 kts 196°
2026-04-29 04:07 -1.04397 -43.76739 37963 ft 478 kts 196°
2026-04-29 04:08 -1.10722 -43.78672 37957 ft 478 kts 196°
2026-04-29 04:08 -1.17094 -43.80619 37961 ft 478 kts 195°
2026-04-29 04:09 -1.23473 -43.82567 37959 ft 479 kts 195°
2026-04-29 04:09 -1.29834 -43.84513 37961 ft 480 kts 196°
2026-04-29 04:10 -1.36233 -43.86470 37960 ft 480 kts 196°
2026-04-29 04:10 -1.42603 -43.88417 37957 ft 481 kts 195°
2026-04-29 04:11 -1.49024 -43.90379 37967 ft 482 kts 195°
2026-04-29 04:11 -1.55423 -43.92336 37962 ft 483 kts 195°
2026-04-29 04:12 -1.61863 -43.94306 37958 ft 484 kts 195°
2026-04-29 04:12 -1.68309 -43.96277 37960 ft 484 kts 194°
2026-04-29 04:13 -1.74729 -43.98240 37963 ft 485 kts 194°
2026-04-29 04:13 -1.81191 -44.00217 37960 ft 485 kts 194°
2026-04-29 04:14 -1.87669 -44.02199 37958 ft 485 kts 194°
2026-04-29 04:14 -1.94090 -44.04163 37960 ft 485 kts 195°
2026-04-29 04:15 -2.00543 -44.06137 37960 ft 485 kts 195°
2026-04-29 04:15 -2.06996 -44.08111 37957 ft 484 kts 195°
2026-04-29 04:16 -2.13441 -44.10083 37960 ft 484 kts 195°
2026-04-29 04:16 -2.19884 -44.12055 37959 ft 484 kts 195°
2026-04-29 04:17 -2.26327 -44.14026 37959 ft 483 kts 196°
2026-04-29 04:17 -2.32733 -44.15986 37949 ft 483 kts 196°
2026-04-29 04:18 -2.39166 -44.17955 37944 ft 482 kts 196°
2026-04-29 04:18 -2.45545 -44.19909 37947 ft 481 kts 196°
2026-04-29 04:19 -2.51950 -44.21872 37942 ft 481 kts 197°
2026-04-29 04:19 -2.58370 -44.23833 37940 ft 481 kts 197°
2026-04-29 04:20 -2.64773 -44.25684 37942 ft 481 kts 195°
2026-04-29 04:20 -2.71253 -44.27436 37943 ft 481 kts 195°
2026-04-29 04:21 -2.77699 -44.29188 37933 ft 482 kts 195°
2026-04-29 04:21 -2.84181 -44.30971 37960 ft 483 kts 195°
2026-04-29 04:22 -2.90684 -44.32768 37962 ft 485 kts 195°
2026-04-29 04:22 -2.97159 -44.34558 37961 ft 486 kts 195°
2026-04-29 04:23 -3.03715 -44.36368 37959 ft 487 kts 195°
2026-04-29 04:23 -3.10228 -44.38167 37960 ft 487 kts 195°
2026-04-29 04:24 -3.16787 -44.39979 37959 ft 487 kts 195°
2026-04-29 04:24 -3.23294 -44.41777 37959 ft 487 kts 195°
2026-04-29 04:25 -3.28694 -44.43387 37960 ft 487 kts 201°
2026-04-29 04:25 -3.34702 -44.46507 37960 ft 487 kts 213°
2026-04-29 04:26 -3.40043 -44.50691 37965 ft 486 kts 219°
2026-04-29 04:26 -3.45250 -44.54976 37958 ft 487 kts 219°
2026-04-29 04:27 -3.50515 -44.59241 37959 ft 487 kts 218°
2026-04-29 04:27 -3.55809 -44.63498 37958 ft 487 kts 218°
2026-04-29 04:28 -3.61075 -44.67735 37958 ft 488 kts 218°
2026-04-29 04:28 -3.66385 -44.71991 37960 ft 488 kts 218°
2026-04-29 04:29 -3.71701 -44.76238 37959 ft 488 kts 218°
2026-04-29 04:29 -3.76989 -44.80469 37960 ft 489 kts 218°
2026-04-29 04:30 -3.82324 -44.84709 37951 ft 489 kts 218°
2026-04-29 04:31 -3.90340 -44.91027 37956 ft 490 kts 218°
2026-04-29 04:31 -3.95711 -44.95267 37958 ft 491 kts 218°
2026-04-29 04:32 -4.01054 -44.99491 37954 ft 491 kts 218°
2026-04-29 04:32 -4.06422 -45.03735 37952 ft 491 kts 218°
2026-04-29 04:33 -4.11787 -45.07978 37953 ft 491 kts 218°
2026-04-29 04:33 -4.17164 -45.12231 37954 ft 491 kts 218°
2026-04-29 04:34 -4.22513 -45.16462 37953 ft 491 kts 218°
2026-04-29 04:34 -4.27881 -45.20710 37954 ft 491 kts 218°
2026-04-29 04:35 -4.33223 -45.24937 37958 ft 491 kts 218°
2026-04-29 04:35 -4.38594 -45.29192 37954 ft 492 kts 218°
2026-04-29 04:36 -4.43977 -45.33452 37959 ft 492 kts 218°
2026-04-29 04:36 -4.49288 -45.37741 37965 ft 493 kts 219°
2026-04-29 04:37 -4.54625 -45.42093 37966 ft 493 kts 219°
2026-04-29 04:37 -4.59924 -45.46408 37962 ft 493 kts 219°
2026-04-29 04:38 -4.65269 -45.50750 37959 ft 494 kts 218°
2026-04-29 04:38 -4.70586 -45.55066 37969 ft 494 kts 218°
2026-04-29 04:39 -4.75946 -45.59415 37964 ft 495 kts 218°
2026-04-29 04:39 -4.81303 -45.63767 37966 ft 495 kts 218°
2026-04-29 04:40 -4.86639 -45.68105 37968 ft 496 kts 218°
2026-04-29 04:40 -4.92012 -45.72473 37967 ft 496 kts 218°
2026-04-29 04:41 -4.97347 -45.76809 37963 ft 496 kts 218°
2026-04-29 04:41 -5.02719 -45.81178 37968 ft 497 kts 218°
2026-04-29 04:42 -5.08095 -45.85550 37969 ft 497 kts 218°
2026-04-29 04:42 -5.13471 -45.89924 37964 ft 497 kts 218°
2026-04-29 04:43 -5.18828 -45.94263 37963 ft 497 kts 218°
2026-04-29 04:43 -5.24217 -45.98606 37961 ft 497 kts 218°
2026-04-29 04:44 -5.29625 -46.02968 37961 ft 497 kts 218°
2026-04-29 04:44 -5.34992 -46.07302 37958 ft 497 kts 218°
2026-04-29 04:45 -5.40389 -46.11663 37957 ft 497 kts 218°
2026-04-29 04:45 -5.45750 -46.15996 37960 ft 497 kts 218°
2026-04-29 04:46 -5.51153 -46.20364 37975 ft 497 kts 218°
2026-04-29 04:46 -5.56555 -46.24731 37960 ft 498 kts 219°
2026-04-29 04:47 -5.61922 -46.29073 37958 ft 497 kts 219°
2026-04-29 04:47 -5.67322 -46.33441 37953 ft 497 kts 219°
2026-04-29 04:48 -5.72682 -46.37778 37954 ft 497 kts 219°
2026-04-29 04:48 -5.78065 -46.42135 37959 ft 496 kts 219°
2026-04-29 04:49 -5.83442 -46.46489 37961 ft 496 kts 219°
2026-04-29 04:49 -5.88781 -46.50813 37958 ft 495 kts 219°
2026-04-29 04:50 -5.94143 -46.55156 37952 ft 495 kts 219°
2026-04-29 04:50 -5.99541 -46.59459 37955 ft 495 kts 218°
2026-04-29 04:51 -6.04932 -46.63719 37960 ft 494 kts 218°
2026-04-29 04:51 -6.10336 -46.67998 37959 ft 495 kts 218°
2026-04-29 04:52 -6.15744 -46.72291 37965 ft 495 kts 218°
2026-04-29 04:52 -6.21158 -46.76592 37958 ft 495 kts 218°
2026-04-29 04:53 -6.26550 -46.80877 37958 ft 496 kts 218°
2026-04-29 04:53 -6.31970 -46.85184 37958 ft 496 kts 218°
2026-04-29 04:54 -6.37388 -46.89492 37966 ft 497 kts 218°
2026-04-29 04:54 -6.42816 -46.93808 37961 ft 497 kts 218°
2026-04-29 04:55 -6.48226 -46.98111 37957 ft 498 kts 218°
2026-04-29 04:55 -6.53672 -47.02445 37963 ft 498 kts 218°
2026-04-29 04:56 -6.59076 -47.06746 37956 ft 498 kts 218°
2026-04-29 04:56 -6.64522 -47.11083 37962 ft 498 kts 218°
2026-04-29 04:57 -6.69963 -47.15416 37962 ft 498 kts 218°
2026-04-29 04:57 -6.75426 -47.19658 37957 ft 498 kts 216°
2026-04-29 04:58 -6.81100 -47.23662 37958 ft 498 kts 214°
2026-04-29 04:58 -6.86793 -47.27644 37956 ft 498 kts 214°
2026-04-29 04:59 -6.92452 -47.31667 37962 ft 498 kts 215°
2026-04-29 04:59 -6.98083 -47.35701 37955 ft 498 kts 215°
2026-04-29 05:00 -7.03737 -47.39753 37958 ft 498 kts 215°
2026-04-29 05:00 -7.09353 -47.43775 37960 ft 497 kts 215°
2026-04-29 05:01 -7.15000 -47.47820 37961 ft 497 kts 215°
2026-04-29 05:01 -7.20650 -47.51869 37957 ft 498 kts 215°
2026-04-29 05:02 -7.26298 -47.55918 37951 ft 498 kts 215°
2026-04-29 05:02 -7.31943 -47.59971 37957 ft 498 kts 216°
2026-04-29 05:03 -7.37579 -47.64022 37957 ft 498 kts 216°
2026-04-29 05:03 -7.43184 -47.68052 37946 ft 498 kts 216°
2026-04-29 05:04 -7.48832 -47.72114 37956 ft 497 kts 216°
2026-04-29 05:04 -7.54469 -47.76169 37956 ft 497 kts 216°
2026-04-29 05:05 -7.60072 -47.80201 37957 ft 497 kts 216°
2026-04-29 05:05 -7.65718 -47.84263 37956 ft 497 kts 215°
2026-04-29 05:06 -7.71360 -47.88328 37955 ft 497 kts 215°
2026-04-29 05:06 -7.76962 -47.92365 37953 ft 497 kts 215°
2026-04-29 05:07 -7.82609 -47.96433 37949 ft 497 kts 215°
2026-04-29 05:07 -7.88215 -48.00471 37954 ft 497 kts 215°
2026-04-29 05:08 -7.93853 -48.04537 37958 ft 497 kts 215°
2026-04-29 05:08 -7.99487 -48.08595 37952 ft 497 kts 215°
2026-04-29 05:09 -8.05093 -48.12639 37953 ft 497 kts 215°
2026-04-29 05:09 -8.10729 -48.16709 37955 ft 497 kts 215°
2026-04-29 05:10 -8.16322 -48.20748 37954 ft 497 kts 215°
2026-04-29 05:10 -8.21952 -48.24813 37963 ft 497 kts 215°
2026-04-29 05:11 -8.27587 -48.28880 37958 ft 497 kts 215°
2026-04-29 05:11 -8.32278 -48.32268 37957 ft 497 kts 215°
2026-04-29 05:12 -8.37910 -48.36337 37965 ft 497 kts 215°
2026-04-29 05:12 -8.43500 -48.40374 37960 ft 497 kts 215°
2026-04-29 05:13 -8.49145 -48.44440 37966 ft 497 kts 215°
2026-04-29 05:13 -8.54789 -48.48505 37967 ft 497 kts 214°
2026-04-29 05:14 -8.60392 -48.52545 37962 ft 497 kts 214°
2026-04-29 05:14 -8.66027 -48.56610 37967 ft 497 kts 214°
2026-04-29 05:15 -8.71625 -48.60651 37968 ft 497 kts 214°
2026-04-29 05:15 -8.77261 -48.64720 37967 ft 497 kts 214°
2026-04-29 05:16 -8.82865 -48.68768 37971 ft 497 kts 214°
2026-04-29 05:16 -8.88486 -48.72830 37973 ft 496 kts 214°
2026-04-29 05:17 -8.94124 -48.76905 37978 ft 496 kts 214°
2026-04-29 05:17 -8.99719 -48.80951 37972 ft 496 kts 214°
2026-04-29 05:18 -9.05341 -48.85019 37971 ft 496 kts 214°
2026-04-29 05:18 -9.10938 -48.89071 37962 ft 496 kts 214°
2026-04-29 05:19 -9.16553 -48.93136 37972 ft 496 kts 214°
2026-04-29 05:19 -9.22180 -48.97225 37960 ft 496 kts 214°
2026-04-29 05:20 -9.27759 -49.01291 37965 ft 496 kts 214°
2026-04-29 05:20 -9.33369 -49.05382 37962 ft 496 kts 214°
2026-04-29 05:21 -9.38990 -49.09480 37961 ft 496 kts 214°
2026-04-29 05:21 -9.44569 -49.13549 37966 ft 496 kts 214°
2026-04-29 05:22 -9.50184 -49.17647 37969 ft 496 kts 214°
2026-04-29 05:22 -9.55768 -49.21723 37972 ft 496 kts 214°
2026-04-29 05:23 -9.61376 -49.25819 37966 ft 496 kts 214°
2026-04-29 05:23 -9.66983 -49.29916 37964 ft 496 kts 214°
2026-04-29 05:24 -9.72555 -49.33987 37961 ft 496 kts 214°
2026-04-29 05:24 -9.78166 -49.38073 37965 ft 496 kts 214°
2026-04-29 05:25 -9.83783 -49.42161 37966 ft 496 kts 214°
2026-04-29 05:25 -9.89355 -49.46220 37964 ft 496 kts 214°
2026-04-29 05:26 -9.94956 -49.50305 37960 ft 496 kts 214°
2026-04-29 05:26 -10.00556 -49.54391 37970 ft 496 kts 214°
2026-04-29 05:27 -10.06158 -49.58479 37974 ft 496 kts 214°
2026-04-29 05:27 -10.14534 -49.64597 37964 ft 495 kts 214°
2026-04-29 05:28 -10.20148 -49.68699 37965 ft 495 kts 214°
2026-04-29 05:28 -10.25717 -49.72771 37968 ft 495 kts 214°
2026-04-29 05:29 -10.31323 -49.76871 37967 ft 495 kts 214°
2026-04-29 05:29 -10.36893 -49.80953 37969 ft 496 kts 215°
2026-04-29 05:30 -10.42485 -49.85066 37963 ft 496 kts 215°
2026-04-29 05:30 -10.48090 -49.89192 37963 ft 496 kts 215°
2026-04-29 05:31 -10.53647 -49.93282 37966 ft 496 kts 215°
2026-04-29 05:31 -10.59256 -49.97409 37963 ft 496 kts 215°
2026-04-29 05:32 -10.64827 -50.01497 37969 ft 496 kts 215°
2026-04-29 05:32 -10.70430 -50.05610 37966 ft 496 kts 215°
2026-04-29 05:33 -10.76000 -50.09705 37964 ft 495 kts 215°
2026-04-29 05:33 -10.81599 -50.13819 37971 ft 495 kts 215°
2026-04-29 05:34 -10.87188 -50.17931 37964 ft 495 kts 215°
2026-04-29 05:34 -10.92740 -50.22018 37957 ft 495 kts 215°
2026-04-29 05:35 -10.98333 -50.26138 37964 ft 495 kts 215°
2026-04-29 05:35 -11.03917 -50.30252 37968 ft 495 kts 215°
2026-04-29 05:36 -11.09512 -50.34374 37964 ft 495 kts 215°
2026-04-29 05:36 -11.15098 -50.38486 37965 ft 495 kts 215°
2026-04-29 05:37 -11.20667 -50.42588 37965 ft 496 kts 215°
2026-04-29 05:37 -11.26266 -50.46715 37960 ft 496 kts 215°
2026-04-29 05:38 -11.31820 -50.50812 37965 ft 495 kts 215°
2026-04-29 05:38 -11.37421 -50.54947 37964 ft 495 kts 216°
2026-04-29 05:39 -11.42977 -50.59049 37960 ft 495 kts 216°
2026-04-29 05:39 -11.48577 -50.63190 37959 ft 496 kts 216°
2026-04-29 05:40 -11.54166 -50.67327 37961 ft 496 kts 216°
2026-04-29 05:40 -11.59721 -50.71442 37955 ft 496 kts 216°
2026-04-29 05:41 -11.65319 -50.75590 37963 ft 497 kts 216°
2026-04-29 05:41 -11.70927 -50.79748 37964 ft 497 kts 216°
2026-04-29 05:42 -11.76498 -50.83881 37959 ft 498 kts 216°
2026-04-29 05:42 -11.82111 -50.88046 37960 ft 498 kts 216°
2026-04-29 05:43 -11.87706 -50.92201 37960 ft 497 kts 216°
2026-04-29 05:43 -11.93295 -50.96353 37955 ft 496 kts 216°
2026-04-29 05:44 -11.98880 -51.00505 37952 ft 496 kts 216°
2026-04-29 05:44 -12.04420 -51.04625 37956 ft 495 kts 216°
2026-04-29 05:45 -12.09986 -51.08767 37965 ft 494 kts 216°
2026-04-29 05:45 -12.15550 -51.12911 37963 ft 494 kts 216°
2026-04-29 05:46 -12.21087 -51.17035 37962 ft 494 kts 216°
2026-04-29 05:46 -12.26640 -51.21179 37968 ft 494 kts 216°
2026-04-29 05:47 -12.32173 -51.25313 37950 ft 494 kts 216°
2026-04-29 05:47 -12.37735 -51.29473 37963 ft 494 kts 216°
2026-04-29 05:48 -12.43296 -51.33631 37964 ft 494 kts 216°
2026-04-29 05:48 -12.48814 -51.37763 37961 ft 493 kts 217°
2026-04-29 05:49 -12.54346 -51.41904 37963 ft 492 kts 217°
2026-04-29 05:49 -12.59882 -51.46037 37957 ft 491 kts 217°
2026-04-29 05:50 -12.65363 -51.50131 37966 ft 490 kts 217°
2026-04-29 05:50 -12.70872 -51.54249 37968 ft 488 kts 217°
2026-04-29 05:51 -12.76369 -51.58361 37963 ft 487 kts 217°
2026-04-29 05:51 -12.81814 -51.62438 37962 ft 486 kts 217°
2026-04-29 05:52 -12.87286 -51.66540 37961 ft 486 kts 217°
2026-04-29 05:52 -12.92711 -51.70606 37959 ft 486 kts 217°
2026-04-29 05:53 -12.98175 -51.74707 37972 ft 486 kts 217°
2026-04-29 05:53 -13.03642 -51.78817 37977 ft 486 kts 217°
2026-04-29 05:54 -13.09108 -51.82926 37968 ft 487 kts 217°
2026-04-29 05:54 -13.14504 -51.87076 37969 ft 488 kts 218°
2026-04-29 05:55 -13.19892 -51.91365 37978 ft 488 kts 219°
2026-04-29 05:55 -13.25245 -51.95617 37980 ft 489 kts 218°
2026-04-29 05:56 -13.30643 -51.99884 37970 ft 489 kts 218°
2026-04-29 05:56 -13.36054 -52.04162 37991 ft 490 kts 219°
2026-04-29 05:57 -13.41441 -52.08414 37990 ft 491 kts 219°
2026-04-29 05:57 -13.46877 -52.12709 37971 ft 492 kts 219°
2026-04-29 05:58 -13.52284 -52.16982 37972 ft 493 kts 219°
2026-04-29 05:58 -13.57745 -52.21306 37972 ft 494 kts 219°
2026-04-29 05:59 -13.63207 -52.25632 37990 ft 495 kts 219°
2026-04-29 05:59 -13.68632 -52.29929 37996 ft 495 kts 219°
2026-04-29 06:00 -13.73172 -52.33529 37987 ft 495 kts 219°
2026-04-29 06:00 -13.78631 -52.37863 37976 ft 495 kts 219°
2026-04-29 06:01 -13.84087 -52.42197 37978 ft 495 kts 219°
2026-04-29 06:01 -13.89538 -52.46530 38000 ft 494 kts 219°
2026-04-29 06:02 -13.94946 -52.50833 37983 ft 494 kts 219°
2026-04-29 06:02 -14.00389 -52.55167 37981 ft 493 kts 219°
2026-04-29 06:03 -14.05811 -52.59489 37989 ft 492 kts 219°
2026-04-29 06:03 -14.11192 -52.63788 37988 ft 491 kts 219°
2026-04-29 06:04 -14.16593 -52.68107 37986 ft 491 kts 219°
2026-04-29 06:04 -14.21995 -52.72430 37984 ft 490 kts 219°
2026-04-29 06:05 -14.27359 -52.76723 37987 ft 490 kts 219°
2026-04-29 06:05 -14.32760 -52.81048 37995 ft 491 kts 219°
2026-04-29 06:06 -14.38162 -52.85378 37994 ft 491 kts 219°
2026-04-29 06:06 -14.43537 -52.89688 37995 ft 492 kts 219°
2026-04-29 06:07 -14.48953 -52.94035 37991 ft 492 kts 219°
2026-04-29 06:07 -14.54345 -52.98364 37994 ft 493 kts 219°
2026-04-29 06:08 -14.59741 -53.02700 37997 ft 493 kts 219°
2026-04-29 06:08 -14.65172 -53.07067 37994 ft 493 kts 219°
2026-04-29 06:09 -14.70551 -53.11395 37992 ft 492 kts 219°
2026-04-29 06:09 -14.75949 -53.15728 37992 ft 491 kts 219°
2026-04-29 06:10 -14.81349 -53.20054 37996 ft 489 kts 219°
2026-04-29 06:10 -14.86695 -53.24341 37994 ft 489 kts 219°
2026-04-29 06:11 -14.92071 -53.28659 37999 ft 488 kts 219°
2026-04-29 06:11 -14.97428 -53.32965 38002 ft 487 kts 219°
2026-04-29 06:12 -15.02793 -53.37280 38000 ft 487 kts 219°
2026-04-29 06:12 -15.08137 -53.41599 37998 ft 487 kts 220°
2026-04-29 06:13 -15.13439 -53.45888 38002 ft 487 kts 220°
2026-04-29 06:13 -15.18792 -53.50216 38001 ft 487 kts 219°
2026-04-29 06:14 -15.24144 -53.54537 37998 ft 487 kts 219°
2026-04-29 06:14 -15.29497 -53.58863 38000 ft 487 kts 219°
2026-04-29 06:15 -15.34820 -53.63169 38002 ft 488 kts 220°
2026-04-29 06:15 -15.40178 -53.67507 38001 ft 488 kts 220°
2026-04-29 06:16 -15.45533 -53.71846 38001 ft 488 kts 220°
2026-04-29 06:16 -15.50853 -53.76159 37996 ft 488 kts 220°
2026-04-29 06:17 -15.56213 -53.80507 37996 ft 488 kts 220°
2026-04-29 06:17 -15.61560 -53.84848 38004 ft 488 kts 220°
2026-04-29 06:18 -15.66910 -53.89195 38000 ft 488 kts 220°
2026-04-29 06:18 -15.72224 -53.93516 37997 ft 487 kts 220°
2026-04-29 06:19 -15.77566 -53.97863 38002 ft 487 kts 220°
2026-04-29 06:19 -15.82911 -54.02213 37997 ft 487 kts 220°
2026-04-29 06:20 -15.88241 -54.06567 37996 ft 487 kts 220°
2026-04-29 06:20 -15.93545 -54.10908 37989 ft 487 kts 220°
2026-04-29 06:21 -15.98883 -54.15269 37991 ft 487 kts 220°
2026-04-29 06:21 -16.04219 -54.19612 37987 ft 487 kts 220°
2026-04-29 06:22 -16.09519 -54.23930 37979 ft 486 kts 220°
2026-04-29 06:22 -16.14854 -54.28284 37980 ft 486 kts 221°
2026-04-29 06:23 -16.20182 -54.32632 37976 ft 486 kts 220°
2026-04-29 06:23 -16.25483 -54.36952 37976 ft 486 kts 221°
2026-04-29 06:24 -16.30778 -54.41293 37975 ft 486 kts 221°
2026-04-29 06:24 -16.36089 -54.45654 37981 ft 486 kts 221°
2026-04-29 06:25 -16.41409 -54.50024 37973 ft 486 kts 221°
2026-04-29 06:25 -16.46720 -54.54388 37978 ft 486 kts 221°
2026-04-29 06:26 -16.51996 -54.58727 37977 ft 486 kts 221°
2026-04-29 06:26 -16.57313 -54.63103 37976 ft 486 kts 221°
2026-04-29 06:27 -16.62626 -54.67473 37986 ft 486 kts 221°
2026-04-29 06:27 -16.67914 -54.71824 37984 ft 486 kts 221°
2026-04-29 06:28 -16.73239 -54.76209 37987 ft 487 kts 221°
2026-04-29 06:28 -16.78557 -54.80593 37985 ft 487 kts 221°
2026-04-29 06:29 -16.83849 -54.84959 37987 ft 486 kts 221°
2026-04-29 06:29 -16.89156 -54.89341 37989 ft 486 kts 221°
2026-04-29 06:30 -16.97132 -54.95933 37978 ft 486 kts 221°
2026-04-29 06:31 -17.02400 -55.00291 37990 ft 486 kts 221°
2026-04-29 06:31 -17.07700 -55.04693 37978 ft 485 kts 222°
2026-04-29 06:32 -17.12963 -55.09073 37975 ft 485 kts 222°
2026-04-29 06:32 -17.18238 -55.13461 37978 ft 484 kts 221°
2026-04-29 06:33 -17.23520 -55.17800 37975 ft 484 kts 221°
2026-04-29 06:33 -17.28812 -55.22196 37975 ft 484 kts 222°
2026-04-29 06:34 -17.34079 -55.26592 37979 ft 484 kts 222°
2026-04-29 06:34 -17.39321 -55.30964 37980 ft 484 kts 222°
2026-04-29 06:35 -17.44595 -55.35364 37977 ft 483 kts 222°
2026-04-29 06:35 -17.49824 -55.39727 37973 ft 483 kts 222°
2026-04-29 06:36 -17.55081 -55.44119 37975 ft 482 kts 222°
2026-04-29 06:36 -17.60334 -55.48510 37978 ft 482 kts 223°
2026-04-29 06:37 -17.65580 -55.52900 37982 ft 482 kts 223°
2026-04-29 06:37 -17.70908 -55.57126 37981 ft 486 kts 214°
2026-04-29 06:38 -17.77152 -55.59960 37982 ft 494 kts 199°
2026-04-29 06:38 -17.83917 -55.61509 37974 ft 496 kts 195°
2026-04-29 06:39 -17.90693 -55.62939 37981 ft 496 kts 195°
2026-04-29 06:39 -17.97411 -55.64400 37980 ft 495 kts 195°
2026-04-29 06:40 -18.04169 -55.65912 37980 ft 496 kts 196°
2026-04-29 06:40 -18.10929 -55.67440 37982 ft 497 kts 196°
2026-04-29 06:41 -18.17698 -55.68971 37982 ft 497 kts 196°
2026-04-29 06:41 -18.24485 -55.70504 37982 ft 498 kts 196°
2026-04-29 06:42 -18.31221 -55.72025 37993 ft 498 kts 197°
2026-04-29 06:42 -18.38030 -55.73564 37982 ft 499 kts 197°
2026-04-29 06:43 -18.44784 -55.75093 37978 ft 499 kts 197°
2026-04-29 06:43 -18.51582 -55.76632 37981 ft 498 kts 197°
2026-04-29 06:44 -18.58330 -55.78161 37983 ft 498 kts 197°
2026-04-29 06:44 -18.65132 -55.79703 37992 ft 497 kts 197°
2026-04-29 06:45 -18.71867 -55.81232 37984 ft 497 kts 197°
2026-04-29 06:45 -18.77500 -55.82512 37986 ft 496 kts 197°
2026-04-29 06:46 -18.85360 -55.84299 37985 ft 496 kts 197°
2026-04-29 06:46 -18.90973 -55.85576 37992 ft 495 kts 197°
2026-04-29 06:47 -18.97715 -55.87112 37984 ft 495 kts 197°
2026-04-29 06:47 -19.04466 -55.88650 37985 ft 494 kts 197°
2026-04-29 06:48 -19.11141 -55.90173 37991 ft 494 kts 197°
2026-04-29 06:48 -19.17858 -55.91707 37988 ft 494 kts 197°
2026-04-29 06:49 -19.24597 -55.93246 37989 ft 493 kts 198°
2026-04-29 06:49 -19.31284 -55.94775 37988 ft 493 kts 198°
2026-04-29 06:50 -19.38001 -55.96312 37994 ft 492 kts 198°
2026-04-29 06:50 -19.44699 -55.97846 37989 ft 492 kts 198°
2026-04-29 06:51 -19.51380 -55.99378 37998 ft 492 kts 198°
2026-04-29 06:51 -19.58083 -56.00917 37987 ft 492 kts 198°
2026-04-29 06:52 -19.64749 -56.02447 37991 ft 492 kts 198°
2026-04-29 06:52 -19.71460 -56.03989 37993 ft 492 kts 198°
2026-04-29 06:53 -19.78115 -56.05520 38012 ft 492 kts 198°
2026-04-29 06:53 -19.84822 -56.07065 37999 ft 492 kts 198°
2026-04-29 06:54 -19.91516 -56.08608 37991 ft 492 kts 198°
2026-04-29 06:54 -19.98223 -56.10154 37996 ft 492 kts 198°
2026-04-29 06:55 -20.04875 -56.11689 37992 ft 492 kts 198°
2026-04-29 06:55 -20.11566 -56.13235 38003 ft 492 kts 199°
2026-04-29 06:56 -20.18252 -56.14781 37985 ft 491 kts 199°
2026-04-29 06:56 -20.24941 -56.16330 37996 ft 491 kts 199°
2026-04-29 06:57 -20.31641 -56.17881 38006 ft 491 kts 199°
2026-04-29 06:57 -20.38272 -56.19418 38001 ft 491 kts 199°
2026-04-29 06:58 -20.44961 -56.20971 38002 ft 491 kts 199°
2026-04-29 06:58 -20.51645 -56.22524 38004 ft 491 kts 199°
2026-04-29 06:59 -20.58334 -56.24078 38001 ft 491 kts 199°
2026-04-29 06:59 -20.64971 -56.25622 38004 ft 491 kts 199°
2026-04-29 07:00 -20.71655 -56.27179 38011 ft 491 kts 199°
2026-04-29 07:00 -20.78342 -56.28738 38003 ft 491 kts 199°
2026-04-29 07:01 -20.84987 -56.30288 38013 ft 491 kts 199°
2026-04-29 07:01 -20.91659 -56.31845 38014 ft 490 kts 199°
2026-04-29 07:02 -20.98348 -56.33409 38022 ft 490 kts 200°
2026-04-29 07:02 -21.04984 -56.34961 38018 ft 490 kts 200°
2026-04-29 07:03 -21.11657 -56.36523 38020 ft 489 kts 200°
2026-04-29 07:03 -21.18316 -56.38084 38022 ft 489 kts 200°
2026-04-29 07:04 -21.24920 -56.39634 38041 ft 489 kts 200°
2026-04-29 07:04 -21.31582 -56.41198 38024 ft 489 kts 200°
2026-04-29 07:05 -21.38211 -56.42756 38020 ft 489 kts 200°
2026-04-29 07:05 -21.44872 -56.44322 38024 ft 489 kts 200°
2026-04-29 07:06 -21.51523 -56.45889 38020 ft 489 kts 200°
2026-04-29 07:06 -21.58138 -56.47448 38017 ft 489 kts 200°
2026-04-29 07:07 -21.64795 -56.49018 38033 ft 489 kts 200°
2026-04-29 07:07 -21.71405 -56.50579 38021 ft 489 kts 200°
2026-04-29 07:08 -21.78065 -56.52153 38023 ft 489 kts 200°
2026-04-29 07:08 -21.84735 -56.53731 38037 ft 489 kts 200°
2026-04-29 07:09 -21.91370 -56.55302 38027 ft 490 kts 200°
2026-04-29 07:09 -21.98042 -56.56885 38022 ft 491 kts 200°
2026-04-29 07:10 -22.04685 -56.58460 38030 ft 491 kts 201°
2026-04-29 07:10 -22.11377 -56.60050 38054 ft 492 kts 201°
2026-04-29 07:11 -22.18072 -56.61642 38035 ft 493 kts 201°
2026-04-29 07:11 -22.21451 -56.62181 38022 ft 505 kts 189°
2026-04-29 07:11 -22.25004 -56.61871 38028 ft 521 kts 175°
2026-04-29 07:11 -22.28508 -56.60681 38028 ft 535 kts 160°
2026-04-29 07:12 -22.31782 -56.58738 38045 ft 538 kts 154°
2026-04-29 07:12 -22.38232 -56.54552 38055 ft 540 kts 154°
2026-04-29 07:13 -22.44681 -56.50424 38045 ft 542 kts 155°
2026-04-29 07:13 -22.51232 -56.46337 38033 ft 542 kts 155°
2026-04-29 07:14 -22.57784 -56.42282 38033 ft 543 kts 155°
2026-04-29 07:14 -22.64343 -56.38211 38040 ft 543 kts 156°
2026-04-29 07:15 -22.70856 -56.34156 38039 ft 543 kts 156°
2026-04-29 07:15 -22.77426 -56.30059 38033 ft 544 kts 155°
2026-04-29 07:16 -22.83985 -56.25965 38040 ft 543 kts 155°
2026-04-29 07:16 -22.90495 -56.21896 38043 ft 544 kts 156°
2026-04-29 07:17 -22.97062 -56.17789 38047 ft 543 kts 156°
2026-04-29 07:17 -23.03757 -56.14369 38049 ft 519 kts 177°
2026-04-29 07:17 -23.07279 -56.14052 38052 ft 498 kts 193°
2026-04-29 07:18 -23.10690 -56.14564 38081 ft 487 kts 204°
2026-04-29 07:18 -23.13847 -56.15657 38051 ft 475 kts 215°
2026-04-29 07:18 -23.16675 -56.17388 38075 ft 463 kts 222°
2026-04-29 07:19 -23.22248 -56.21075 38053 ft 472 kts 221°
2026-04-29 07:19 -23.27863 -56.24697 38036 ft 467 kts 221°
2026-04-29 07:20 -23.33454 -56.28255 38042 ft 463 kts 221°
2026-04-29 07:20 -23.39014 -56.31801 38055 ft 462 kts 221°
2026-04-29 07:21 -23.44540 -56.35331 38051 ft 462 kts 221°
2026-04-29 07:21 -23.50090 -56.38880 38028 ft 462 kts 222°
2026-04-29 07:22 -23.55606 -56.42410 38049 ft 461 kts 222°
2026-04-29 07:22 -23.61146 -56.45959 38045 ft 461 kts 222°
2026-04-29 07:23 -23.66678 -56.49507 38048 ft 461 kts 222°
2026-04-29 07:23 -23.72210 -56.53058 38081 ft 461 kts 222°
2026-04-29 07:24 -23.77710 -56.56591 38045 ft 460 kts 223°
2026-04-29 07:24 -23.83229 -56.60139 38051 ft 459 kts 223°
2026-04-29 07:25 -23.88725 -56.63675 38036 ft 456 kts 223°
2026-04-29 07:25 -23.94181 -56.67190 38051 ft 454 kts 223°
2026-04-29 07:26 -23.99588 -56.70678 38042 ft 453 kts 223°
2026-04-29 07:26 -24.05022 -56.74188 38078 ft 451 kts 223°
2026-04-29 07:27 -24.10397 -56.77663 38053 ft 451 kts 223°
2026-04-29 07:27 -24.15815 -56.81168 38039 ft 450 kts 223°
2026-04-29 07:28 -24.21171 -56.84636 38065 ft 449 kts 223°
2026-04-29 07:28 -24.26546 -56.88122 38034 ft 448 kts 224°
2026-04-29 07:29 -24.31893 -56.91592 38035 ft 448 kts 224°
2026-04-29 07:29 -24.37259 -56.95078 38053 ft 448 kts 224°
2026-04-29 07:30 -24.42618 -56.98563 38055 ft 448 kts 224°
2026-04-29 07:30 -24.47998 -57.02066 38033 ft 448 kts 224°
2026-04-29 07:31 -24.56015 -57.07290 38048 ft 449 kts 224°
2026-04-29 07:31 -24.61392 -57.10798 38033 ft 449 kts 224°
2026-04-29 07:32 -24.65868 -57.13723 38053 ft 449 kts 224°
2026-04-29 07:32 -24.71243 -57.17237 38044 ft 449 kts 224°
2026-04-29 07:33 -24.76616 -57.20752 38042 ft 447 kts 224°
2026-04-29 07:33 -24.81914 -57.24223 38041 ft 444 kts 224°
2026-04-29 07:34 -24.87228 -57.27708 38040 ft 443 kts 224°
2026-04-29 07:34 -24.92481 -57.31159 38041 ft 441 kts 224°
2026-04-29 07:35 -24.97757 -57.34628 38028 ft 440 kts 224°
2026-04-29 07:35 -25.02998 -57.38078 38030 ft 440 kts 224°
2026-04-29 07:36 -25.08271 -57.41552 37999 ft 440 kts 224°
2026-04-29 07:36 -25.13492 -57.44995 37975 ft 439 kts 224°
2026-04-29 07:37 -25.18749 -57.48464 37969 ft 439 kts 224°
2026-04-29 07:37 -25.21460 -57.50111 37958 ft 451 kts 218°
2026-04-29 07:37 -25.24438 -57.51311 37971 ft 468 kts 210°
2026-04-29 07:38 -25.27655 -57.52135 37970 ft 481 kts 203°
2026-04-29 07:38 -25.31050 -57.52488 37977 ft 498 kts 195°
2026-04-29 07:38 -25.38037 -57.52539 38047 ft 503 kts 193°
2026-04-29 07:39 -25.45037 -57.52507 38045 ft 502 kts 194°
2026-04-29 07:39 -25.51986 -57.52551 38051 ft 500 kts 194°
2026-04-29 07:40 -25.58954 -57.52644 38055 ft 500 kts 194°
2026-04-29 07:40 -25.65923 -57.52743 38052 ft 500 kts 194°
2026-04-29 07:41 -25.72891 -57.52836 38044 ft 499 kts 194°
2026-04-29 07:41 -25.79806 -57.52926 38049 ft 499 kts 194°
2026-04-29 07:42 -25.86764 -57.52993 38026 ft 499 kts 193°
2026-04-29 07:42 -25.93686 -57.53160 38034 ft 499 kts 193°
2026-04-29 07:43 -26.00604 -57.53204 38059 ft 500 kts 193°
2026-04-29 07:43 -26.07566 -57.53287 38100 ft 500 kts 193°
2026-04-29 07:44 -26.14548 -57.53383 38053 ft 502 kts 192°
2026-04-29 07:44 -26.21509 -57.53461 38052 ft 503 kts 192°
2026-04-29 07:45 -26.28529 -57.53538 38051 ft 503 kts 192°
2026-04-29 07:45 -26.35495 -57.53617 38102 ft 503 kts 191°
2026-04-29 07:46 -26.42510 -57.53698 38053 ft 502 kts 191°
2026-04-29 07:46 -26.49510 -57.53778 38047 ft 501 kts 191°
2026-04-29 07:47 -26.56440 -57.53858 38049 ft 500 kts 191°
2026-04-29 07:47 -26.63391 -57.53940 38064 ft 500 kts 191°
2026-04-29 07:48 -26.70338 -57.54022 38045 ft 499 kts 191°
2026-04-29 07:48 -26.77283 -57.54103 38046 ft 498 kts 191°
2026-04-29 07:49 -26.84222 -57.54185 38050 ft 498 kts 191°
2026-04-29 07:49 -26.91143 -57.54322 38062 ft 498 kts 191°
2026-04-29 07:50 -26.98045 -57.54533 38058 ft 498 kts 191°
2026-04-29 07:50 -27.04985 -57.54741 38049 ft 498 kts 191°
2026-04-29 07:51 -27.11944 -57.54937 38053 ft 499 kts 191°
2026-04-29 07:51 -27.18850 -57.55128 38052 ft 499 kts 191°
2026-04-29 07:52 -27.25818 -57.55322 38054 ft 499 kts 191°
2026-04-29 07:52 -27.32755 -57.55516 38052 ft 499 kts 191°
2026-04-29 07:53 -27.39699 -57.55712 38070 ft 499 kts 191°
2026-04-29 07:53 -27.46459 -57.56596 38052 ft 483 kts 202°
2026-04-29 07:54 -27.53015 -57.58342 38053 ft 482 kts 203°
2026-04-29 07:54 -27.59519 -57.60094 38058 ft 483 kts 203°
2026-04-29 07:55 -27.66081 -57.61820 38081 ft 485 kts 201°
2026-04-29 07:55 -27.72617 -57.63558 38059 ft 485 kts 201°
2026-04-29 07:56 -27.79224 -57.65241 38069 ft 485 kts 201°
2026-04-29 07:56 -27.85817 -57.66967 38057 ft 485 kts 200°
2026-04-29 07:57 -27.92358 -57.68678 38083 ft 483 kts 199°
2026-04-29 07:57 -27.98901 -57.70376 38059 ft 481 kts 199°
2026-04-29 07:58 -28.05394 -57.72076 38060 ft 479 kts 199°
2026-04-29 07:58 -28.11883 -57.73784 38051 ft 478 kts 199°
2026-04-29 07:59 -28.18379 -57.75494 38086 ft 477 kts 199°
2026-04-29 07:59 -28.24795 -57.77184 38061 ft 476 kts 198°
2026-04-29 08:00 -28.31243 -57.78873 38056 ft 475 kts 198°
2026-04-29 08:00 -28.37693 -57.80546 38059 ft 475 kts 198°
2026-04-29 08:01 -28.44150 -57.82215 38056 ft 475 kts 198°
2026-04-29 08:01 -28.50573 -57.83881 38062 ft 475 kts 197°
2026-04-29 08:02 -28.57030 -57.85555 38054 ft 475 kts 197°
2026-04-29 08:02 -28.63471 -57.87230 38058 ft 475 kts 197°
2026-04-29 08:03 -28.69881 -57.88900 38058 ft 474 kts 197°
2026-04-29 08:03 -28.76321 -57.90578 38051 ft 473 kts 196°
2026-04-29 08:04 -28.82746 -57.92254 38052 ft 472 kts 196°
2026-04-29 08:04 -28.89044 -57.93899 38048 ft 453 kts 195°
2026-04-29 08:05 -28.95162 -57.95500 38059 ft 451 kts 195°
2026-04-29 08:05 -29.01285 -57.97107 38066 ft 451 kts 194°
2026-04-29 08:06 -29.07370 -57.98705 38055 ft 451 kts 194°
2026-04-29 08:06 -29.13484 -58.00309 38056 ft 450 kts 194°
2026-04-29 08:07 -29.19591 -58.01914 38056 ft 449 kts 194°
2026-04-29 08:07 -29.25643 -58.03509 38055 ft 448 kts 193°
2026-04-29 08:08 -29.31713 -58.05108 38065 ft 446 kts 192°
2026-04-29 08:08 -29.37781 -58.06711 38058 ft 446 kts 192°
2026-04-29 08:09 -29.43810 -58.08277 38054 ft 445 kts 191°
2026-04-29 08:09 -29.49913 -58.09543 38055 ft 445 kts 189°
2026-04-29 08:10 -29.55996 -58.10741 38056 ft 446 kts 189°
2026-04-29 08:10 -29.62121 -58.11993 38055 ft 447 kts 190°
2026-04-29 08:11 -29.68265 -58.13274 38052 ft 448 kts 190°
2026-04-29 08:11 -29.74380 -58.14550 38050 ft 449 kts 190°
2026-04-29 08:12 -29.80551 -58.15838 38048 ft 450 kts 190°
2026-04-29 08:12 -29.86697 -58.17065 38047 ft 450 kts 189°
2026-04-29 08:13 -29.92898 -58.18228 38053 ft 450 kts 189°
2026-04-29 08:13 -29.99092 -58.19393 38048 ft 450 kts 189°
2026-04-29 08:14 -30.05246 -58.20561 38070 ft 450 kts 190°
2026-04-29 08:14 -30.11420 -58.21738 38039 ft 448 kts 190°
2026-04-29 08:15 -30.17565 -58.22918 38042 ft 446 kts 190°
2026-04-29 08:15 -30.23659 -58.24086 38042 ft 445 kts 190°
2026-04-29 08:16 -30.28729 -58.25058 38049 ft 443 kts 190°
2026-04-29 08:16 -30.35816 -58.26418 38043 ft 443 kts 190°
2026-04-29 08:17 -30.40913 -58.27398 38043 ft 442 kts 190°
2026-04-29 08:17 -30.46978 -58.28565 38044 ft 442 kts 190°
2026-04-29 08:18 -30.53018 -58.29729 38039 ft 442 kts 190°
2026-04-29 08:18 -30.59100 -58.30903 38047 ft 444 kts 191°
2026-04-29 08:19 -30.65196 -58.32194 38041 ft 445 kts 192°
2026-04-29 08:19 -30.71253 -58.33570 38043 ft 446 kts 192°
2026-04-29 08:20 -30.77368 -58.34943 38038 ft 447 kts 192°
2026-04-29 08:20 -30.83456 -58.36298 38041 ft 448 kts 192°
2026-04-29 08:21 -30.89581 -58.37661 38036 ft 448 kts 192°
2026-04-29 08:21 -30.95720 -58.38933 38032 ft 447 kts 191°
2026-04-29 08:22 -31.01863 -58.40153 38032 ft 447 kts 191°
2026-04-29 08:22 -31.07953 -58.41370 38041 ft 446 kts 192°
2026-04-29 08:23 -31.14059 -58.42603 38027 ft 444 kts 192°
2026-04-29 08:23 -31.20156 -58.43840 38031 ft 442 kts 192°
2026-04-29 08:24 -31.26185 -58.45066 38025 ft 441 kts 192°
2026-04-29 08:24 -31.32223 -58.46294 38042 ft 440 kts 193°
2026-04-29 08:25 -31.38249 -58.47522 38024 ft 438 kts 193°
2026-04-29 08:25 -31.44254 -58.48745 38026 ft 436 kts 193°
2026-04-29 08:26 -31.50235 -58.49967 38019 ft 435 kts 193°
2026-04-29 08:26 -31.56171 -58.51181 38037 ft 434 kts 194°
2026-04-29 08:27 -31.62083 -58.52392 38015 ft 432 kts 194°
2026-04-29 08:27 -31.68024 -58.53610 38016 ft 431 kts 194°
2026-04-29 08:28 -31.73905 -58.54817 38018 ft 430 kts 194°
2026-04-29 08:28 -31.79810 -58.56031 38018 ft 430 kts 194°
2026-04-29 08:29 -31.85721 -58.57248 38014 ft 430 kts 194°
2026-04-29 08:29 -31.91599 -58.58460 38009 ft 431 kts 194°
2026-04-29 08:30 -32.00486 -58.60294 38004 ft 432 kts 194°
2026-04-29 08:31 -32.06389 -58.61515 38020 ft 432 kts 195°
2026-04-29 08:31 -32.12337 -58.62746 38015 ft 433 kts 195°
2026-04-29 08:32 -32.18248 -58.63972 37996 ft 434 kts 195°
2026-04-29 08:32 -32.24199 -58.65207 38011 ft 434 kts 195°
2026-04-29 08:33 -32.30147 -58.66435 37987 ft 435 kts 193°
2026-04-29 08:33 -32.36240 -58.66900 38000 ft 442 kts 184°
2026-04-29 08:34 -32.42415 -58.66400 37999 ft 445 kts 182°
2026-04-29 08:34 -32.48552 -58.65844 37995 ft 445 kts 182°
2026-04-29 08:35 -32.54735 -58.65306 37990 ft 444 kts 182°
2026-04-29 08:35 -32.60919 -58.64784 37989 ft 444 kts 182°
2026-04-29 08:36 -32.67065 -58.64269 37981 ft 445 kts 182°
2026-04-29 08:36 -32.73254 -58.63748 37981 ft 445 kts 182°
2026-04-29 08:37 -32.79411 -58.63229 37988 ft 446 kts 183°
2026-04-29 08:37 -32.85633 -58.62703 37982 ft 447 kts 183°
2026-04-29 08:38 -32.91856 -58.62176 37976 ft 448 kts 183°
2026-04-29 08:38 -32.98052 -58.61651 37992 ft 449 kts 183°
2026-04-29 08:39 -33.04255 -58.61690 37974 ft 441 kts 192°
2026-04-29 08:39 -33.10302 -58.62431 37582 ft 438 kts 192°
2026-04-29 08:39 -33.13343 -58.62809 37033 ft 441 kts 192°
2026-04-29 08:40 -33.16415 -58.63186 36433 ft 446 kts 192°
2026-04-29 08:40 -33.19525 -58.63561 35825 ft 450 kts 192°
2026-04-29 08:40 -33.22659 -58.63932 35193 ft 454 kts 192°
2026-04-29 08:40 -33.25805 -58.64299 34369 ft 455 kts 191°
2026-04-29 08:41 -33.28969 -58.64667 33430 ft 457 kts 191°
2026-04-29 08:41 -33.32143 -58.65035 32481 ft 459 kts 191°
2026-04-29 08:41 -33.35300 -58.65400 31863 ft 454 kts 191°
2026-04-29 08:41 -33.38440 -58.65764 31226 ft 450 kts 191°
2026-04-29 08:42 -33.41547 -58.66127 30616 ft 447 kts 191°
2026-04-29 08:42 -33.44629 -58.66488 30028 ft 443 kts 191°
2026-04-29 08:42 -33.47653 -58.66844 29330 ft 440 kts 191°
2026-04-29 08:42 -33.50689 -58.67201 28657 ft 437 kts 191°
2026-04-29 08:43 -33.53712 -58.67557 28022 ft 433 kts 191°
2026-04-29 08:43 -33.56704 -58.67909 27377 ft 430 kts 191°
2026-04-29 08:43 -33.59669 -58.68259 26755 ft 427 kts 191°
2026-04-29 08:43 -33.62616 -58.68607 26151 ft 424 kts 191°
2026-04-29 08:44 -33.65541 -58.68952 25548 ft 422 kts 191°
2026-04-29 08:44 -33.68466 -58.69298 24970 ft 421 kts 192°
2026-04-29 08:44 -33.71378 -58.69643 24338 ft 420 kts 192°
2026-04-29 08:44 -33.74295 -58.69989 23721 ft 420 kts 192°
2026-04-29 08:45 -33.77164 -58.70329 23051 ft 420 kts 192°
2026-04-29 08:45 -33.80069 -58.70672 22412 ft 417 kts 192°
2026-04-29 08:45 -33.82956 -58.71014 21809 ft 415 kts 192°
2026-04-29 08:45 -33.85836 -58.71355 21214 ft 412 kts 192°
2026-04-29 08:46 -33.88677 -58.71691 20663 ft 409 kts 192°
2026-04-29 08:46 -33.91502 -58.72026 20133 ft 406 kts 192°
2026-04-29 08:46 -33.94306 -58.72358 19615 ft 402 kts 192°
2026-04-29 08:46 -33.97077 -58.72433 19045 ft 407 kts 182°
2026-04-29 08:47 -33.99902 -58.71883 18459 ft 414 kts 171°
2026-04-29 08:47 -34.02637 -58.70697 17893 ft 420 kts 160°
2026-04-29 08:47 -34.05188 -58.68978 17389 ft 420 kts 153°
2026-04-29 08:47 -34.07628 -58.67054 16913 ft 416 kts 150°
2026-04-29 08:48 -34.10016 -58.65102 16419 ft 412 kts 150°
2026-04-29 08:48 -34.12341 -58.63189 15964 ft 408 kts 150°
2026-04-29 08:48 -34.14681 -58.61261 15520 ft 403 kts 150°
2026-04-29 08:48 -34.16975 -58.59368 14963 ft 392 kts 149°
2026-04-29 08:49 -34.19227 -58.57515 14222 ft 394 kts 149°
2026-04-29 08:49 -34.21501 -58.55661 13665 ft 394 kts 149°
2026-04-29 08:49 -34.23771 -58.53822 13193 ft 390 kts 149°
2026-04-29 08:49 -34.25983 -58.52033 12759 ft 384 kts 150°
2026-04-29 08:50 -34.28190 -58.50245 12312 ft 380 kts 150°
2026-04-29 08:50 -34.30358 -58.48482 12135 ft 368 kts 150°
2026-04-29 08:50 -34.32440 -58.46775 12018 ft 354 kts 150°
2026-04-29 08:50 -34.34434 -58.45127 11931 ft 340 kts 150°
2026-04-29 08:51 -34.36353 -58.43528 11853 ft 328 kts 150°
2026-04-29 08:51 -34.38177 -58.41999 11729 ft 317 kts 150°
2026-04-29 08:51 -34.39986 -58.40473 11574 ft 309 kts 150°
2026-04-29 08:51 -34.41708 -58.39016 11326 ft 304 kts 150°
2026-04-29 08:52 -34.43417 -58.37563 10855 ft 297 kts 150°
2026-04-29 08:52 -34.45119 -58.36115 10331 ft 299 kts 150°
2026-04-29 08:52 -34.46804 -58.34676 9905 ft 293 kts 150°
2026-04-29 08:52 -34.48472 -58.33249 9416 ft 294 kts 149°
2026-04-29 08:53 -34.50146 -58.31825 9068 ft 293 kts 149°
2026-04-29 08:53 -34.51791 -58.30434 8769 ft 291 kts 149°
2026-04-29 08:53 -34.53457 -58.29034 8435 ft 290 kts 149°
2026-04-29 08:53 -34.55130 -58.27637 8099 ft 290 kts 149°
2026-04-29 08:54 -34.56799 -58.26252 7749 ft 290 kts 149°
2026-04-29 08:54 -34.58469 -58.24876 7420 ft 290 kts 149°
2026-04-29 08:54 -34.60123 -58.23520 7102 ft 290 kts 149°
2026-04-29 08:54 -34.61797 -58.22155 6797 ft 290 kts 149°
2026-04-29 08:55 -34.63481 -58.20792 6488 ft 290 kts 149°
2026-04-29 08:55 -34.65236 -58.19676 6033 ft 283 kts 169°
2026-04-29 08:55 -34.67126 -58.19507 5664 ft 269 kts 191°
2026-04-29 08:55 -34.68999 -58.19725 5296 ft 271 kts 191°
2026-04-29 08:56 -34.70888 -58.19921 5008 ft 271 kts 191°
2026-04-29 08:56 -34.72752 -58.20110 4691 ft 265 kts 191°
2026-04-29 08:56 -34.74582 -58.20295 4270 ft 262 kts 191°
2026-04-29 08:56 -34.76375 -58.20472 3962 ft 252 kts 191°
2026-04-29 08:57 -34.78074 -58.20640 3682 ft 248 kts 192°
2026-04-29 08:57 -34.79814 -58.20818 3433 ft 252 kts 192°
2026-04-29 08:57 -34.81553 -58.20991 3264 ft 247 kts 192°
2026-04-29 08:57 -34.83242 -58.21158 3138 ft 239 kts 194°
2026-04-29 08:58 -34.84716 -58.21726 3032 ft 207 kts 227°
2026-04-29 08:58 -34.85556 -58.22969 2952 ft 181 kts 252°
2026-04-29 08:58 -34.86011 -58.24323 2874 ft 163 kts 265°
2026-04-29 08:58 -34.86068 -58.25616 2846 ft 150 kts 277°
2026-04-29 08:59 -34.86070 -58.26891 2763 ft 150 kts 275°
2026-04-29 08:59 -34.86076 -58.28155 2688 ft 149 kts 275°
2026-04-29 08:59 -34.86079 -58.29422 2605 ft 149 kts 276°
2026-04-29 08:59 -34.86081 -58.30666 2558 ft 149 kts 276°
2026-04-29 09:00 -34.86077 -58.31924 2507 ft 146 kts 279°
2026-04-29 09:00 -34.85898 -58.33131 2492 ft 147 kts 286°
2026-04-29 09:00 -34.85674 -58.34355 2329 ft 145 kts 286°
2026-04-29 09:00 -34.85464 -58.35507 2245 ft 134 kts 286°
2026-04-29 09:01 -34.85269 -58.36585 2130 ft 126 kts 287°
2026-04-29 09:01 -34.85080 -58.37628 2038 ft 126 kts 286°
2026-04-29 09:01 -34.84891 -58.38678 1958 ft 128 kts 286°
2026-04-29 09:01 -34.84702 -58.39728 1876 ft 129 kts 286°
2026-04-29 09:02 -34.84510 -58.40800 1799 ft 129 kts 286°
2026-04-29 09:02 -34.84319 -58.41865 1649 ft 128 kts 287°
2026-04-29 09:02 -34.84134 -58.42902 1485 ft 122 kts 287°
2026-04-29 09:02 -34.83962 -58.43872 1356 ft 115 kts 288°
2026-04-29 09:03 -34.83786 -58.44845 1214 ft 119 kts 286°
2026-04-29 09:03 -34.83669 -58.45496 1109 ft 120 kts 285°
2026-04-29 09:03 -34.83489 -58.46501 944 ft 125 kts 286°
2026-04-29 09:03 -34.83297 -58.47568 758 ft 131 kts 285°
2026-04-29 09:04 -34.83104 -58.48658 578 ft 132 kts 286°
2026-04-29 09:04 -34.82855 -58.50108 417 ft 131 kts 286°
2026-04-29 09:04 -34.82718 -58.50845 294 ft 133 kts 287°
2026-04-29 09:04 -34.82520 -58.51948 118 ft 133 kts 287°
2026-04-29 09:05 -34.82332 -58.52970 90 ft 105 kts 283°
2026-04-29 09:05 -34.82212 -58.53628 87 ft 58 kts 283°
2026-04-29 09:05 -34.82151 -58.53980 90 ft 35 kts 282°
2026-04-29 09:05 -34.82102 -58.54252 87 ft 30 kts 282°
2026-04-29 09:06 -34.82062 -58.54465 90 ft 17 kts 282°
2026-04-29 09:06 -34.82024 -58.54541 87 ft 11 kts 343°
2026-04-29 09:06 -34.81954 -58.54503 85 ft 12 kts 33°
2026-04-29 09:06 -34.81877 -58.54440 84 ft 14 kts 33°
2026-04-29 09:07 -34.81797 -58.54372 83 ft 12 kts 40°
2026-04-29 09:07 -34.81775 -58.54282 81 ft 12 kts 92°
2026-04-29 09:07 -34.81783 -58.54183 81 ft 12 kts 99°
2026-04-29 09:07 -34.81791 -58.54085 84 ft 12 kts 88°
2026-04-29 09:08 -34.81768 -58.53992 84 ft 12 kts 62°
2026-04-29 09:08 -34.81727 -58.53906 84 ft 12 kts 59°
2026-04-29 09:08 -34.81682 -58.53835 83 ft 9 kts 32°
2026-04-29 09:08 -34.81636 -58.53850 85 ft 7 kts 325°
2026-04-29 09:09 -34.81596 -58.53886 85 ft 7 kts 323°
2026-04-29 09:09 -34.81565 -58.53917 85 ft 3 kts 322°
2026-04-29 09:09 -34.81556 -58.53925 79 ft 1 kts 322°
2026-04-29 09:09 -34.81554 -58.53927 85 ft 0 kts 321°
2026-04-29 09:11 -34.81565 -58.53917 79 ft 0 kts 322°
2026-04-29 09:14 -34.81575 -58.53908 7 ft 0 kts 322°
2026-04-29 09:14 -34.81565 -58.53917 79 ft 0 kts 322°